Time,TemperatureF,DewpointF,PressureIn,WindDirection,WindDirectionDegrees,WindSpeedMPH,WindSpeedGustMPH,Humidity,HourlyPrecipIn,Conditions,Clouds,dailyrainin,SoftwareType,DateUTC
2013-02-10 00:00:00,28.1,17.9,30.33,SSE,152,0.0,0.0,65,0.00,,---,0.00,VWS V14.01,2013-02-10 05:00:00,
2013-02-10 00:01:00,27.9,17.7,30.33,SSE,152,0.0,0.0,65,0.00,,---,0.00,VWS V14.01,2013-02-10 05:01:00,
2013-02-10 00:03:00,27.9,17.7,30.33,SSE,152,0.0,0.0,65,0.00,,---,0.00,VWS V14.01,2013-02-10 05:03:00,
2013-02-10 00:05:00,27.9,17.7,30.33,SSE,152,0.0,0.0,65,0.00,,---,0.00,VWS V14.01,2013-02-10 05:05:00,
2013-02-10 00:07:00,27.8,17.6,30.33,SSE,152,0.0,0.0,65,0.00,,---,0.00,VWS V14.01,2013-02-10 05:07:00,
2013-02-10 00:09:00,27.8,17.9,30.33,SSE,152,0.0,0.0,66,0.00,,---,0.00,VWS V14.01,2013-02-10 05:09:00,
2013-02-10 00:11:00,27.8,17.9,30.33,SSE,151,0.0,1.0,66,0.00,,---,0.00,VWS V14.01,2013-02-10 05:11:00,
2013-02-10 00:13:00,27.8,17.9,30.33,SSE,151,0.0,1.0,66,0.00,,---,0.00,VWS V14.01,2013-02-10 05:13:00,
2013-02-10 00:15:00,27.8,18.3,30.33,SSE,151,0.0,1.0,67,0.00,,---,0.00,VWS V14.01,2013-02-10 05:15:00,
2013-02-10 00:17:00,27.8,18.3,30.33,SSE,151,0.0,0.0,67,0.00,,---,0.00,VWS V14.01,2013-02-10 05:17:00,
2013-02-10 00:19:00,27.8,18.6,30.33,SSE,152,0.0,1.0,68,0.00,,---,0.00,VWS V14.01,2013-02-10 05:19:00,
2013-02-10 00:21:00,27.8,19.0,30.33,SSE,152,0.0,1.0,69,0.00,,---,0.00,VWS V14.01,2013-02-10 05:21:00,
2013-02-10 00:23:00,27.8,18.6,30.33,SSE,152,0.0,1.0,68,0.00,,---,0.00,VWS V14.01,2013-02-10 05:23:00,
2013-02-10 00:25:00,27.8,18.6,30.33,SSE,152,0.0,1.0,68,0.00,,---,0.00,VWS V14.01,2013-02-10 05:25:00,
2013-02-10 00:27:00,27.8,18.6,30.33,SSE,152,0.0,1.0,68,0.00,,---,0.00,VWS V14.01,2013-02-10 05:27:00,
2013-02-10 00:29:00,27.8,18.6,30.33,SSE,151,0.0,1.0,68,0.00,,---,0.00,VWS V14.01,2013-02-10 05:29:00,
2013-02-10 00:30:00,27.8,18.6,30.33,SSE,152,0.0,1.0,68,0.00,,---,0.00,VWS V14.01,2013-02-10 05:30:00,
2013-02-10 00:31:00,27.8,18.6,30.33,SSE,152,0.0,0.0,68,0.00,,---,0.00,VWS V14.01,2013-02-10 05:31:00,
2013-02-10 00:33:00,27.8,18.6,30.33,SSE,151,0.0,0.0,68,0.00,,---,0.00,VWS V14.01,2013-02-10 05:33:00,
2013-02-10 00:35:00,27.8,18.6,30.33,SSE,151,0.0,0.0,68,0.00,,---,0.00,VWS V14.01,2013-02-10 05:35:00,
2013-02-10 00:37:00,27.8,18.6,30.33,SSE,151,0.0,0.0,68,0.00,,---,0.00,VWS V14.01,2013-02-10 05:37:00,
2013-02-10 00:39:00,27.6,18.4,30.33,SSE,152,0.0,0.0,68,0.00,,---,0.00,VWS V14.01,2013-02-10 05:39:00,
2013-02-10 00:41:00,27.6,18.8,30.33,SSE,151,0.0,0.0,69,0.00,,---,0.00,VWS V14.01,2013-02-10 05:41:00,
2013-02-10 00:43:00,27.6,19.1,30.33,SSE,152,0.0,0.0,70,0.00,,---,0.00,VWS V14.01,2013-02-10 05:43:00,
2013-02-10 00:45:00,27.5,19.0,30.32,SSE,151,0.0,0.0,70,0.00,,---,0.00,VWS V14.01,2013-02-10 05:45:00,
2013-02-10 00:47:00,27.5,19.0,30.32,SSE,152,0.0,0.0,70,0.00,,---,0.00,VWS V14.01,2013-02-10 05:47:00,
2013-02-10 00:49:00,27.3,18.5,30.32,SSE,151,0.0,0.0,69,0.00,,---,0.00,VWS V14.01,2013-02-10 05:49:00,
2013-02-10 00:51:00,27.3,18.5,30.32,SSE,152,0.0,0.0,69,0.00,,---,0.00,VWS V14.01,2013-02-10 05:51:00,
2013-02-10 00:53:00,27.3,18.5,30.32,SSE,151,0.0,0.0,69,0.00,,---,0.00,VWS V14.01,2013-02-10 05:53:00,
2013-02-10 00:55:00,27.2,18.7,30.32,SSE,151,0.0,0.0,70,0.00,,---,0.00,VWS V14.01,2013-02-10 05:55:00,
2013-02-10 00:57:00,27.2,19.1,30.32,SSE,151,0.0,0.0,71,0.00,,---,0.00,VWS V14.01,2013-02-10 05:57:00,
2013-02-10 00:59:00,27.2,18.7,30.32,SSE,151,0.0,0.0,70,0.00,,---,0.00,VWS V14.01,2013-02-10 05:59:00,
2013-02-10 01:00:00,27.0,18.2,30.32,SSE,152,0.0,0.0,69,0.00,,---,0.00,VWS V14.01,2013-02-10 06:00:00,
2013-02-10 01:01:00,27.0,18.2,30.32,SSE,151,0.0,0.0,69,0.00,,---,0.00,VWS V14.01,2013-02-10 06:01:00,
2013-02-10 01:03:00,27.0,18.5,30.32,SSE,152,0.0,0.0,70,0.00,,---,0.00,VWS V14.01,2013-02-10 06:03:00,
2013-02-10 01:05:00,27.0,18.5,30.32,SSE,152,0.0,0.0,70,0.00,,---,0.00,VWS V14.01,2013-02-10 06:05:00,
2013-02-10 01:07:00,27.0,18.5,30.32,SSE,151,0.0,0.0,70,0.00,,---,0.00,VWS V14.01,2013-02-10 06:07:00,
2013-02-10 01:09:00,27.0,18.2,30.32,SSE,152,0.0,0.0,69,0.00,,---,0.00,VWS V14.01,2013-02-10 06:09:00,
2013-02-10 01:11:00,27.0,18.2,30.32,SSE,152,0.0,0.0,69,0.00,,---,0.00,VWS V14.01,2013-02-10 06:11:00,
2013-02-10 01:13:00,27.0,18.2,30.32,SSE,151,0.0,0.0,69,0.00,,---,0.00,VWS V14.01,2013-02-10 06:13:00,
2013-02-10 01:15:00,27.0,18.2,30.32,SSE,152,0.0,0.0,69,0.00,,---,0.00,VWS V14.01,2013-02-10 06:15:00,
2013-02-10 01:17:00,27.0,18.2,30.32,SSE,152,0.0,0.0,69,0.00,,---,0.00,VWS V14.01,2013-02-10 06:17:00,
2013-02-10 01:19:00,27.0,17.9,30.32,SSE,152,0.0,0.0,68,0.00,,---,0.00,VWS V14.01,2013-02-10 06:19:00,
2013-02-10 01:21:00,27.0,17.5,30.32,SSE,152,0.0,0.0,67,0.00,,---,0.00,VWS V14.01,2013-02-10 06:21:00,
2013-02-10 01:23:00,27.2,17.7,30.32,SSE,152,0.0,0.0,67,0.00,,---,0.00,VWS V14.01,2013-02-10 06:23:00,
2013-02-10 01:25:00,27.2,17.7,30.32,SSE,152,0.0,0.0,67,0.00,,---,0.00,VWS V14.01,2013-02-10 06:25:00,
2013-02-10 01:27:00,27.2,17.7,30.32,SSE,151,0.0,0.0,67,0.00,,---,0.00,VWS V14.01,2013-02-10 06:27:00,
2013-02-10 01:29:00,27.3,17.5,30.32,SSE,152,0.0,0.0,66,0.00,,---,0.00,VWS V14.01,2013-02-10 06:29:00,
2013-02-10 01:30:00,27.3,17.5,30.32,SSE,152,0.0,0.0,66,0.00,,---,0.00,VWS V14.01,2013-02-10 06:30:00,
2013-02-10 01:31:00,27.5,17.6,30.32,SSE,152,0.0,0.0,66,0.00,,---,0.00,VWS V14.01,2013-02-10 06:31:00,
2013-02-10 01:33:00,27.6,17.7,30.32,SSE,152,0.0,0.0,66,0.00,,---,0.00,VWS V14.01,2013-02-10 06:33:00,
2013-02-10 01:35:00,27.6,17.7,30.32,SSE,152,0.0,0.0,66,0.00,,---,0.00,VWS V14.01,2013-02-10 06:35:00,
2013-02-10 01:37:00,27.8,17.9,30.32,SSE,152,0.0,0.0,66,0.00,,---,0.00,VWS V14.01,2013-02-10 06:37:00,
2013-02-10 01:39:00,27.8,17.6,30.32,SSE,152,0.0,0.0,65,0.00,,---,0.00,VWS V14.01,2013-02-10 06:39:00,
2013-02-10 01:41:00,27.9,18.0,30.32,SSE,152,0.0,0.0,66,0.00,,---,0.00,VWS V14.01,2013-02-10 06:41:00,
2013-02-10 01:43:00,27.9,18.0,30.32,SSE,152,0.0,0.0,66,0.00,,---,0.00,VWS V14.01,2013-02-10 06:43:00,
2013-02-10 01:45:00,27.8,17.9,30.33,SSE,152,0.0,0.0,66,0.00,,---,0.00,VWS V14.01,2013-02-10 06:45:00,
2013-02-10 01:47:00,27.8,17.9,30.33,SSE,152,0.0,0.0,66,0.00,,---,0.00,VWS V14.01,2013-02-10 06:47:00,
2013-02-10 01:49:00,27.6,17.7,30.33,SSE,152,0.0,0.0,66,0.00,,---,0.00,VWS V14.01,2013-02-10 06:49:00,
2013-02-10 01:51:00,27.6,17.7,30.33,SSE,152,0.0,0.0,66,0.00,,---,0.00,VWS V14.01,2013-02-10 06:51:00,
2013-02-10 01:53:00,27.6,17.7,30.33,SSE,152,0.0,0.0,66,0.00,,---,0.00,VWS V14.01,2013-02-10 06:53:00,
2013-02-10 01:55:00,27.5,17.3,30.33,SSE,152,0.0,0.0,65,0.00,,---,0.00,VWS V14.01,2013-02-10 06:55:00,
2013-02-10 01:57:00,27.5,17.3,30.33,SSE,152,0.0,0.0,65,0.00,,---,0.00,VWS V14.01,2013-02-10 06:57:00,
2013-02-10 01:59:00,27.3,17.5,30.34,SSE,152,0.0,0.0,66,0.00,,---,0.00,VWS V14.01,2013-02-10 06:59:00,
2013-02-10 02:00:00,27.3,17.5,30.34,SSE,152,0.0,0.0,66,0.00,,---,0.00,VWS V14.01,2013-02-10 07:00:00,
2013-02-10 02:01:00,27.3,17.5,30.34,SSE,152,0.0,0.0,66,0.00,,---,0.00,VWS V14.01,2013-02-10 07:01:00,
2013-02-10 02:03:00,27.2,17.4,30.34,SSE,152,0.0,0.0,66,0.00,,---,0.00,VWS V14.01,2013-02-10 07:03:00,
2013-02-10 02:05:00,27.2,17.4,30.34,SSE,152,0.0,0.0,66,0.00,,---,0.00,VWS V14.01,2013-02-10 07:05:00,
2013-02-10 02:07:00,27.2,17.7,30.34,SSE,152,0.0,0.0,67,0.00,,---,0.00,VWS V14.01,2013-02-10 07:07:00,
2013-02-10 02:09:00,27.0,17.2,30.34,SSE,152,0.0,0.0,66,0.00,,---,0.00,VWS V14.01,2013-02-10 07:09:00,
2013-02-10 02:11:00,27.0,17.2,30.34,SSE,152,0.0,0.0,66,0.00,,---,0.00,VWS V14.01,2013-02-10 07:11:00,
2013-02-10 02:13:00,26.9,17.1,30.34,SSE,152,0.0,0.0,66,0.00,,---,0.00,VWS V14.01,2013-02-10 07:13:00,
2013-02-10 02:15:00,26.9,17.4,30.34,SSE,152,0.0,0.0,67,0.00,,---,0.00,VWS V14.01,2013-02-10 07:15:00,
2013-02-10 02:17:00,26.9,17.8,30.34,SSE,152,0.0,0.0,68,0.00,,---,0.00,VWS V14.01,2013-02-10 07:17:00,
2013-02-10 02:19:00,26.7,17.9,30.34,SSE,152,0.0,0.0,69,0.00,,---,0.00,VWS V14.01,2013-02-10 07:19:00,
2013-02-10 02:21:00,26.6,18.1,30.34,SSE,152,0.0,0.0,70,0.00,,---,0.00,VWS V14.01,2013-02-10 07:21:00,
2013-02-10 02:23:00,26.6,18.1,30.34,SSE,152,0.0,0.0,70,0.00,,---,0.00,VWS V14.01,2013-02-10 07:23:00,
2013-02-10 02:25:00,26.4,18.0,30.34,SSE,152,0.0,0.0,70,0.00,,---,0.00,VWS V14.01,2013-02-10 07:25:00,
2013-02-10 02:27:00,26.4,18.0,30.34,SSE,152,0.0,0.0,70,0.00,,---,0.00,VWS V14.01,2013-02-10 07:27:00,
2013-02-10 02:29:00,26.3,17.9,30.35,SSE,152,0.0,0.0,70,0.00,,---,0.00,VWS V14.01,2013-02-10 07:29:00,
2013-02-10 02:30:00,26.3,17.9,30.35,SSE,152,0.0,0.0,70,0.00,,---,0.00,VWS V14.01,2013-02-10 07:30:00,
2013-02-10 02:31:00,26.3,17.9,30.35,SSE,152,0.0,0.0,70,0.00,,---,0.00,VWS V14.01,2013-02-10 07:31:00,
2013-02-10 02:33:00,26.1,17.7,30.35,SSE,152,0.0,0.0,70,0.00,,---,0.00,VWS V14.01,2013-02-10 07:33:00,
2013-02-10 02:35:00,26.1,17.7,30.35,SSE,152,0.0,0.0,70,0.00,,---,0.00,VWS V14.01,2013-02-10 07:35:00,
2013-02-10 02:37:00,26.1,17.3,30.35,SSE,152,0.0,0.0,69,0.00,,---,0.00,VWS V14.01,2013-02-10 07:37:00,
2013-02-10 02:39:00,26.1,17.0,30.35,SSE,152,0.0,0.0,68,0.00,,---,0.00,VWS V14.01,2013-02-10 07:39:00,
2013-02-10 02:41:00,26.3,17.2,30.35,SSE,152,0.0,0.0,68,0.00,,---,0.00,VWS V14.01,2013-02-10 07:41:00,
2013-02-10 02:44:00,26.3,17.2,30.35,SSE,152,0.0,0.0,68,0.00,,---,0.00,VWS V14.01,2013-02-10 07:44:00,
2013-02-10 02:45:00,26.3,17.2,30.35,SSE,152,0.0,0.0,68,0.00,,---,0.00,VWS V14.01,2013-02-10 07:45:00,
2013-02-10 02:47:00,26.4,17.3,30.35,SSE,152,0.0,0.0,68,0.00,,---,0.00,VWS V14.01,2013-02-10 07:47:00,
2013-02-10 02:49:00,26.4,17.3,30.35,SSE,152,0.0,0.0,68,0.00,,---,0.00,VWS V14.01,2013-02-10 07:49:00,
2013-02-10 02:51:00,26.4,17.3,30.35,SSE,152,0.0,0.0,68,0.00,,---,0.00,VWS V14.01,2013-02-10 07:51:00,
2013-02-10 02:54:00,26.4,17.3,30.35,SSE,152,0.0,0.0,68,0.00,,---,0.00,VWS V14.01,2013-02-10 07:54:00,
2013-02-10 02:56:00,26.4,17.3,30.35,SSE,152,0.0,0.0,68,0.00,,---,0.00,VWS V14.01,2013-02-10 07:56:00,
2013-02-10 02:58:00,26.4,17.3,30.35,SSE,152,0.0,0.0,68,0.00,,---,0.00,VWS V14.01,2013-02-10 07:58:00,
2013-02-10 02:59:00,26.4,17.6,30.35,SSE,152,0.0,0.0,69,0.00,,---,0.00,VWS V14.01,2013-02-10 07:59:00,
2013-02-10 03:00:00,26.4,17.6,30.35,SSE,152,0.0,0.0,69,0.00,,---,0.00,VWS V14.01,2013-02-10 08:00:00,
2013-02-10 03:02:00,26.4,17.6,30.35,SSE,152,0.0,0.0,69,0.00,,---,0.00,VWS V14.01,2013-02-10 08:02:00,
2013-02-10 03:04:00,26.3,17.5,30.35,SSE,152,0.0,0.0,69,0.00,,---,0.00,VWS V14.01,2013-02-10 08:04:00,
2013-02-10 03:06:00,26.3,17.5,30.35,SSE,152,0.0,0.0,69,0.00,,---,0.00,VWS V14.01,2013-02-10 08:06:00,
2013-02-10 03:08:00,26.3,17.5,30.35,SSE,152,0.0,0.0,69,0.00,,---,0.00,VWS V14.01,2013-02-10 08:08:00,
2013-02-10 03:10:00,26.3,17.5,30.35,SSE,152,0.0,0.0,69,0.00,,---,0.00,VWS V14.01,2013-02-10 08:10:00,
2013-02-10 03:12:00,26.3,17.5,30.35,SSE,152,0.0,0.0,69,0.00,,---,0.00,VWS V14.01,2013-02-10 08:12:00,
2013-02-10 03:14:00,26.1,17.7,30.35,SSE,152,0.0,0.0,70,0.00,,---,0.00,VWS V14.01,2013-02-10 08:14:00,
2013-02-10 03:15:00,26.1,17.7,30.35,SSE,152,0.0,0.0,70,0.00,,---,0.00,VWS V14.01,2013-02-10 08:15:00,
2013-02-10 03:16:00,26.1,17.7,30.35,SSE,152,0.0,0.0,70,0.00,,---,0.00,VWS V14.01,2013-02-10 08:16:00,
2013-02-10 03:18:00,26.1,17.7,30.35,SSE,152,0.0,0.0,70,0.00,,---,0.00,VWS V14.01,2013-02-10 08:18:00,
2013-02-10 03:20:00,26.1,17.7,30.35,SSE,152,0.0,0.0,70,0.00,,---,0.00,VWS V14.01,2013-02-10 08:20:00,
2013-02-10 03:22:00,26.1,17.7,30.35,SSE,152,0.0,0.0,70,0.00,,---,0.00,VWS V14.01,2013-02-10 08:22:00,
2013-02-10 03:24:00,26.1,17.7,30.35,SSE,152,0.0,0.0,70,0.00,,---,0.00,VWS V14.01,2013-02-10 08:24:00,
2013-02-10 03:26:00,26.1,17.7,30.35,SSE,152,0.0,0.0,70,0.00,,---,0.00,VWS V14.01,2013-02-10 08:26:00,
2013-02-10 03:28:00,26.0,17.9,30.35,SSE,152,0.0,0.0,71,0.00,,---,0.00,VWS V14.01,2013-02-10 08:28:00,
2013-02-10 03:30:00,26.0,17.9,30.35,SE,146,0.0,0.0,71,0.00,,---,0.00,VWS V14.01,2013-02-10 08:30:00,
2013-02-10 03:32:00,26.0,17.9,30.35,SE,146,0.0,1.0,71,0.00,,---,0.00,VWS V14.01,2013-02-10 08:32:00,
2013-02-10 03:34:00,26.0,17.9,30.35,SE,146,0.0,1.0,71,0.00,,---,0.00,VWS V14.01,2013-02-10 08:34:00,
2013-02-10 03:36:00,26.1,18.0,30.35,SE,146,0.0,1.0,71,0.00,,---,0.00,VWS V14.01,2013-02-10 08:36:00,
2013-02-10 03:38:00,26.1,18.0,30.35,SE,146,0.0,1.0,71,0.00,,---,0.00,VWS V14.01,2013-02-10 08:38:00,
2013-02-10 03:40:00,26.1,18.0,30.35,SE,146,0.0,1.0,71,0.00,,---,0.00,VWS V14.01,2013-02-10 08:40:00,
2013-02-10 03:42:00,26.1,18.0,30.35,SE,146,0.0,1.0,71,0.00,,---,0.00,VWS V14.01,2013-02-10 08:42:00,
2013-02-10 03:44:00,26.0,17.9,30.35,SE,146,0.0,1.0,71,0.00,,---,0.00,VWS V14.01,2013-02-10 08:44:00,
2013-02-10 03:45:00,26.0,17.9,30.35,SE,146,0.0,1.0,71,0.00,,---,0.00,VWS V14.01,2013-02-10 08:45:00,
2013-02-10 03:46:00,26.0,17.9,30.35,SE,146,0.0,0.0,71,0.00,,---,0.00,VWS V14.01,2013-02-10 08:46:00,
2013-02-10 03:48:00,26.0,18.2,30.35,SE,146,0.0,0.0,72,0.00,,---,0.00,VWS V14.01,2013-02-10 08:48:00,
2013-02-10 03:50:00,25.8,18.0,30.35,SE,146,0.0,0.0,72,0.00,,---,0.00,VWS V14.01,2013-02-10 08:50:00,
2013-02-10 03:52:00,25.8,18.4,30.35,SE,146,0.0,0.0,73,0.00,,---,0.00,VWS V14.01,2013-02-10 08:52:00,
2013-02-10 03:54:00,25.8,18.7,30.35,SE,146,0.0,0.0,74,0.00,,---,0.00,VWS V14.01,2013-02-10 08:54:00,
2013-02-10 03:56:00,25.7,18.6,30.35,SE,146,0.0,0.0,74,0.00,,---,0.00,VWS V14.01,2013-02-10 08:56:00,
2013-02-10 03:58:00,25.7,18.6,30.35,SE,146,0.0,0.0,74,0.00,,---,0.00,VWS V14.01,2013-02-10 08:58:00,
2013-02-10 04:00:00,25.7,18.6,30.35,SE,146,0.0,0.0,74,0.00,,---,0.00,VWS V14.01,2013-02-10 09:00:00,
2013-02-10 04:02:00,25.6,18.8,30.35,SE,146,0.0,0.0,75,0.00,,---,0.00,VWS V14.01,2013-02-10 09:02:00,
2013-02-10 04:04:00,25.6,18.8,30.35,SE,146,0.0,0.0,75,0.00,,---,0.00,VWS V14.01,2013-02-10 09:04:00,
2013-02-10 04:06:00,25.6,18.8,30.35,SE,146,0.0,0.0,75,0.00,,---,0.00,VWS V14.01,2013-02-10 09:06:00,
2013-02-10 04:08:00,25.6,19.1,30.35,SE,146,0.0,0.0,76,0.00,,---,0.00,VWS V14.01,2013-02-10 09:08:00,
2013-02-10 04:10:00,25.4,18.9,30.35,SE,146,0.0,0.0,76,0.00,,---,0.00,VWS V14.01,2013-02-10 09:10:00,
2013-02-10 04:12:00,25.4,18.9,30.35,SE,146,0.0,0.0,76,0.00,,---,0.00,VWS V14.01,2013-02-10 09:12:00,
2013-02-10 04:14:00,25.4,18.9,30.35,East,94,3.0,3.0,76,0.00,,---,0.00,VWS V14.01,2013-02-10 09:14:00,
2013-02-10 04:15:00,25.4,18.9,30.35,East,91,2.0,3.0,76,0.00,,---,0.00,VWS V14.01,2013-02-10 09:15:00,
2013-02-10 04:16:00,25.4,18.9,30.35,East,91,0.0,2.0,76,0.00,,---,0.00,VWS V14.01,2013-02-10 09:16:00,
2013-02-10 04:18:00,25.4,18.9,30.35,East,91,0.0,2.0,76,0.00,,---,0.00,VWS V14.01,2013-02-10 09:18:00,
2013-02-10 04:20:00,25.4,18.9,30.35,East,91,0.0,2.0,76,0.00,,---,0.00,VWS V14.01,2013-02-10 09:20:00,
2013-02-10 04:22:00,25.3,18.8,30.35,East,91,0.0,2.0,76,0.00,,---,0.00,VWS V14.01,2013-02-10 09:22:00,
2013-02-10 04:24:00,25.3,19.1,30.35,East,91,0.0,2.0,77,0.00,,---,0.00,VWS V14.01,2013-02-10 09:24:00,
2013-02-10 04:26:00,25.3,19.1,30.35,East,91,0.0,2.0,77,0.00,,---,0.00,VWS V14.01,2013-02-10 09:26:00,
2013-02-10 04:28:00,25.3,19.1,30.35,East,91,0.0,2.0,77,0.00,,---,0.00,VWS V14.01,2013-02-10 09:28:00,
2013-02-10 04:30:00,25.1,18.9,30.35,East,91,0.0,2.0,77,0.00,,---,0.00,VWS V14.01,2013-02-10 09:30:00,
2013-02-10 04:32:00,25.1,18.9,30.35,East,91,0.0,0.0,77,0.00,,---,0.00,VWS V14.01,2013-02-10 09:32:00,
2013-02-10 04:34:00,25.1,18.9,30.35,East,91,0.0,0.0,77,0.00,,---,0.00,VWS V14.01,2013-02-10 09:34:00,
2013-02-10 04:36:00,25.1,18.9,30.35,East,91,0.0,0.0,77,0.00,,---,0.00,VWS V14.01,2013-02-10 09:36:00,
2013-02-10 04:38:00,25.1,18.9,30.35,East,91,0.0,0.0,77,0.00,,---,0.00,VWS V14.01,2013-02-10 09:38:00,
2013-02-10 04:40:00,25.1,18.9,30.35,East,91,0.0,0.0,77,0.00,,---,0.00,VWS V14.01,2013-02-10 09:40:00,
2013-02-10 04:42:00,25.1,18.9,30.35,East,91,0.0,0.0,77,0.00,,---,0.00,VWS V14.01,2013-02-10 09:42:00,
2013-02-10 04:44:00,25.1,18.9,30.36,East,91,0.0,0.0,77,0.00,,---,0.00,VWS V14.01,2013-02-10 09:44:00,
2013-02-10 04:45:00,25.1,18.9,30.36,East,91,0.0,0.0,77,0.00,,---,0.00,VWS V14.01,2013-02-10 09:45:00,
2013-02-10 04:46:00,25.1,18.9,30.36,East,91,0.0,0.0,77,0.00,,---,0.00,VWS V14.01,2013-02-10 09:46:00,
2013-02-10 04:48:00,25.0,18.8,30.36,East,91,0.0,0.0,77,0.00,,---,0.00,VWS V14.01,2013-02-10 09:48:00,
2013-02-10 04:50:00,25.0,18.8,30.36,East,91,0.0,0.0,77,0.00,,---,0.00,VWS V14.01,2013-02-10 09:50:00,
2013-02-10 04:52:00,25.0,18.8,30.36,East,91,0.0,0.0,77,0.00,,---,0.00,VWS V14.01,2013-02-10 09:52:00,
2013-02-10 04:54:00,25.0,19.1,30.36,East,91,0.0,0.0,78,0.00,,---,0.00,VWS V14.01,2013-02-10 09:54:00,
2013-02-10 04:56:00,25.0,19.1,30.36,East,91,0.0,0.0,78,0.00,,---,0.00,VWS V14.01,2013-02-10 09:56:00,
2013-02-10 04:58:00,24.8,18.9,30.36,East,91,0.0,0.0,78,0.00,,---,0.00,VWS V14.01,2013-02-10 09:58:00,
2013-02-10 05:00:00,24.8,18.9,30.36,East,91,0.0,0.0,78,0.00,,---,0.00,VWS V14.01,2013-02-10 10:00:00,
2013-02-10 05:02:00,24.8,18.9,30.36,East,91,0.0,0.0,78,0.00,,---,0.00,VWS V14.01,2013-02-10 10:02:00,
2013-02-10 05:04:00,24.8,18.9,30.36,East,91,0.0,0.0,78,0.00,,---,0.00,VWS V14.01,2013-02-10 10:04:00,
2013-02-10 05:06:00,24.8,18.9,30.36,East,91,0.0,0.0,78,0.00,,---,0.00,VWS V14.01,2013-02-10 10:06:00,
2013-02-10 05:08:00,24.8,18.9,30.36,East,91,0.0,0.0,78,0.00,,---,0.00,VWS V14.01,2013-02-10 10:08:00,
2013-02-10 05:10:00,24.8,19.2,30.36,East,91,0.0,0.0,79,0.00,,---,0.00,VWS V14.01,2013-02-10 10:10:00,
2013-02-10 05:12:00,24.8,19.2,30.36,East,91,0.0,0.0,79,0.00,,---,0.00,VWS V14.01,2013-02-10 10:12:00,
2013-02-10 05:14:00,24.7,19.1,30.36,East,91,0.0,0.0,79,0.00,,---,0.00,VWS V14.01,2013-02-10 10:14:00,
2013-02-10 05:15:00,24.7,19.1,30.36,East,91,0.0,0.0,79,0.00,,---,0.00,VWS V14.01,2013-02-10 10:15:00,
2013-02-10 05:16:00,24.7,19.1,30.36,East,91,0.0,0.0,79,0.00,,---,0.00,VWS V14.01,2013-02-10 10:16:00,
2013-02-10 05:18:00,24.7,19.1,30.36,East,91,0.0,0.0,79,0.00,,---,0.00,VWS V14.01,2013-02-10 10:18:00,
2013-02-10 05:20:00,24.7,19.1,30.36,East,91,0.0,0.0,79,0.00,,---,0.00,VWS V14.01,2013-02-10 10:20:00,
2013-02-10 05:22:00,24.7,19.1,30.36,East,91,0.0,0.0,79,0.00,,---,0.00,VWS V14.01,2013-02-10 10:22:00,
2013-02-10 05:24:00,24.7,19.1,30.36,East,91,0.0,0.0,79,0.00,,---,0.00,VWS V14.01,2013-02-10 10:24:00,
2013-02-10 05:26:00,24.7,19.1,30.36,East,91,0.0,0.0,79,0.00,,---,0.00,VWS V14.01,2013-02-10 10:26:00,
2013-02-10 05:28:00,24.7,19.1,30.36,East,91,0.0,0.0,79,0.00,,---,0.00,VWS V14.01,2013-02-10 10:28:00,
2013-02-10 05:30:00,24.7,19.1,30.37,East,91,0.0,0.0,79,0.00,,---,0.00,VWS V14.01,2013-02-10 10:30:00,
2013-02-10 05:32:00,24.5,18.9,30.37,East,91,0.0,0.0,79,0.00,,---,0.00,VWS V14.01,2013-02-10 10:32:00,
2013-02-10 05:34:00,24.5,18.9,30.37,East,91,0.0,0.0,79,0.00,,---,0.00,VWS V14.01,2013-02-10 10:34:00,
2013-02-10 05:36:00,24.5,18.9,30.37,East,91,0.0,0.0,79,0.00,,---,0.00,VWS V14.01,2013-02-10 10:36:00,
2013-02-10 05:38:00,24.5,18.9,30.37,East,91,0.0,0.0,79,0.00,,---,0.00,VWS V14.01,2013-02-10 10:38:00,
2013-02-10 05:40:00,24.5,18.9,30.37,East,91,0.0,0.0,79,0.00,,---,0.00,VWS V14.01,2013-02-10 10:40:00,
2013-02-10 05:42:00,24.5,18.9,30.37,East,91,0.0,0.0,79,0.00,,---,0.00,VWS V14.01,2013-02-10 10:42:00,
2013-02-10 05:44:00,24.5,18.9,30.37,East,91,0.0,0.0,79,0.00,,---,0.00,VWS V14.01,2013-02-10 10:44:00,
2013-02-10 05:45:00,24.7,19.4,30.37,East,91,0.0,0.0,80,0.00,,---,0.00,VWS V14.01,2013-02-10 10:45:00,
2013-02-10 05:46:00,24.7,19.4,30.37,East,91,0.0,0.0,80,0.00,,---,0.00,VWS V14.01,2013-02-10 10:46:00,
2013-02-10 05:48:00,24.7,19.1,30.37,East,91,0.0,0.0,79,0.00,,---,0.00,VWS V14.01,2013-02-10 10:48:00,
2013-02-10 05:50:00,24.7,19.1,30.37,East,91,0.0,0.0,79,0.00,,---,0.00,VWS V14.01,2013-02-10 10:50:00,
2013-02-10 05:52:00,24.8,19.2,30.37,East,91,0.0,0.0,79,0.00,,---,0.00,VWS V14.01,2013-02-10 10:52:00,
2013-02-10 05:54:00,24.8,19.2,30.37,East,91,0.0,0.0,79,0.00,,---,0.00,VWS V14.01,2013-02-10 10:54:00,
2013-02-10 05:56:00,24.8,19.2,30.37,East,91,0.0,0.0,79,0.00,,---,0.00,VWS V14.01,2013-02-10 10:56:00,
2013-02-10 05:58:00,24.8,19.2,30.37,East,91,0.0,0.0,79,0.00,,---,0.00,VWS V14.01,2013-02-10 10:58:00,
2013-02-10 06:00:00,24.8,19.2,30.38,East,91,0.0,0.0,79,0.00,,---,0.00,VWS V14.01,2013-02-10 11:00:00,
2013-02-10 06:02:00,24.8,19.2,30.38,East,91,0.0,0.0,79,0.00,,---,0.00,VWS V14.01,2013-02-10 11:02:00,
2013-02-10 06:06:00,24.8,19.2,30.38,East,91,0.0,0.0,79,0.00,,---,0.00,VWS V14.01,2013-02-10 11:06:00,
2013-02-10 06:08:00,24.8,19.2,30.38,East,91,0.0,0.0,79,0.00,,---,0.00,VWS V14.01,2013-02-10 11:08:00,
2013-02-10 06:10:00,25.0,19.4,30.38,East,91,0.0,0.0,79,0.00,,---,0.00,VWS V14.01,2013-02-10 11:10:00,
2013-02-10 06:12:00,25.0,19.4,30.38,East,91,0.0,0.0,79,0.00,,---,0.00,VWS V14.01,2013-02-10 11:12:00,
2013-02-10 06:14:00,25.0,19.7,30.39,East,91,0.0,0.0,80,0.00,,---,0.00,VWS V14.01,2013-02-10 11:14:00,
2013-02-10 06:15:00,25.0,19.7,30.39,East,91,0.0,0.0,80,0.00,,---,0.00,VWS V14.01,2013-02-10 11:15:00,
2013-02-10 06:16:00,24.8,19.2,30.38,East,91,0.0,0.0,79,0.00,,---,0.00,VWS V14.01,2013-02-10 11:16:00,
2013-02-10 06:18:00,25.0,19.4,30.39,East,91,0.0,0.0,79,0.00,,---,0.00,VWS V14.01,2013-02-10 11:18:00,
2013-02-10 06:22:00,25.1,19.5,30.39,East,91,0.0,0.0,79,0.00,,---,0.00,VWS V14.01,2013-02-10 11:22:00,
2013-02-10 06:24:00,25.1,19.5,30.39,East,91,0.0,0.0,79,0.00,,---,0.00,VWS V14.01,2013-02-10 11:24:00,
2013-02-10 06:26:00,25.1,19.5,30.39,East,91,0.0,0.0,79,0.00,,---,0.00,VWS V14.01,2013-02-10 11:26:00,
2013-02-10 06:28:00,25.1,19.5,30.39,East,91,0.0,0.0,79,0.00,,---,0.00,VWS V14.01,2013-02-10 11:28:00,
2013-02-10 06:30:00,25.1,19.5,30.40,East,91,0.0,0.0,79,0.00,,---,0.00,VWS V14.01,2013-02-10 11:30:00,
2013-02-10 06:32:00,25.0,19.4,30.39,East,91,0.0,0.0,79,0.00,,---,0.00,VWS V14.01,2013-02-10 11:32:00,
2013-02-10 06:36:00,25.1,19.5,30.40,East,91,0.0,0.0,79,0.00,,---,0.00,VWS V14.01,2013-02-10 11:36:00,
2013-02-10 06:38:00,25.3,19.7,30.40,East,91,0.0,0.0,79,0.00,,---,0.00,VWS V14.01,2013-02-10 11:38:00,
2013-02-10 06:40:00,25.3,19.7,30.40,East,91,0.0,0.0,79,0.00,,---,0.00,VWS V14.01,2013-02-10 11:40:00,
2013-02-10 06:44:00,25.1,19.5,30.40,East,91,0.0,0.0,79,0.00,,---,0.00,VWS V14.01,2013-02-10 11:44:00,
2013-02-10 06:45:00,25.4,19.8,30.40,East,91,0.0,0.0,79,0.00,,---,0.00,VWS V14.01,2013-02-10 11:45:00,
2013-02-10 06:46:00,25.4,19.8,30.40,East,91,0.0,0.0,79,0.00,,---,0.00,VWS V14.01,2013-02-10 11:46:00,
2013-02-10 06:48:00,25.4,19.8,30.40,East,91,0.0,0.0,79,0.00,,---,0.00,VWS V14.01,2013-02-10 11:48:00,
2013-02-10 06:50:00,25.4,19.5,30.40,East,91,0.0,0.0,78,0.00,,---,0.00,VWS V14.01,2013-02-10 11:50:00,
2013-02-10 06:52:00,25.6,19.7,30.40,East,91,0.0,0.0,78,0.00,,---,0.00,VWS V14.01,2013-02-10 11:52:00,
2013-02-10 06:54:00,25.3,19.7,30.40,East,91,0.0,0.0,79,0.00,,---,0.00,VWS V14.01,2013-02-10 11:54:00,
2013-02-10 06:56:00,25.6,19.7,30.40,East,91,0.0,0.0,78,0.00,,---,0.00,VWS V14.01,2013-02-10 11:56:00,
2013-02-10 06:58:00,25.6,19.7,30.40,East,91,0.0,0.0,78,0.00,,---,0.00,VWS V14.01,2013-02-10 11:58:00,
2013-02-10 07:00:00,25.7,19.8,30.41,East,91,0.0,0.0,78,0.00,,---,0.00,VWS V14.01,2013-02-10 12:00:00,
2013-02-10 07:02:00,25.7,19.8,30.41,East,91,0.0,0.0,78,0.00,,---,0.00,VWS V14.01,2013-02-10 12:02:00,
2013-02-10 07:04:00,25.7,19.8,30.41,East,91,0.0,0.0,78,0.00,,---,0.00,VWS V14.01,2013-02-10 12:04:00,
2013-02-10 07:06:00,25.7,19.8,30.41,East,91,0.0,0.0,78,0.00,,---,0.00,VWS V14.01,2013-02-10 12:06:00,
2013-02-10 07:08:00,25.8,19.9,30.41,East,91,0.0,0.0,78,0.00,,---,0.00,VWS V14.01,2013-02-10 12:08:00,
2013-02-10 07:10:00,25.8,19.9,30.41,East,91,0.0,0.0,78,0.00,,---,0.00,VWS V14.01,2013-02-10 12:10:00,
2013-02-10 07:12:00,25.8,19.9,30.41,East,91,0.0,0.0,78,0.00,,---,0.00,VWS V14.01,2013-02-10 12:12:00,
2013-02-10 07:14:00,26.0,20.1,30.42,East,91,0.0,0.0,78,0.00,,---,0.00,VWS V14.01,2013-02-10 12:14:00,
2013-02-10 07:15:00,26.0,20.1,30.42,East,91,0.0,0.0,78,0.00,,---,0.00,VWS V14.01,2013-02-10 12:15:00,
2013-02-10 07:16:00,26.0,20.1,30.42,East,91,0.0,0.0,78,0.00,,---,0.00,VWS V14.01,2013-02-10 12:16:00,
2013-02-10 07:19:00,26.0,20.1,30.42,East,91,0.0,0.0,78,0.00,,---,0.00,VWS V14.01,2013-02-10 12:19:00,
2013-02-10 07:21:00,26.0,20.1,30.42,East,91,0.0,0.0,78,0.00,,---,0.00,VWS V14.01,2013-02-10 12:21:00,
2013-02-10 07:23:00,26.1,20.5,30.42,East,91,0.0,0.0,79,0.00,,---,0.00,VWS V14.01,2013-02-10 12:23:00,
2013-02-10 07:25:00,26.1,20.2,30.42,East,91,0.0,0.0,78,0.00,,---,0.00,VWS V14.01,2013-02-10 12:25:00,
2013-02-10 07:27:00,26.1,20.2,30.42,East,91,0.0,0.0,78,0.00,,---,0.00,VWS V14.01,2013-02-10 12:27:00,
2013-02-10 07:29:00,26.1,20.2,30.42,East,91,0.0,0.0,78,0.00,,---,0.00,VWS V14.01,2013-02-10 12:29:00,
2013-02-10 07:30:00,26.1,19.9,30.43,East,91,0.0,0.0,77,0.00,,---,0.00,VWS V14.01,2013-02-10 12:30:00,
2013-02-10 07:31:00,26.1,19.9,30.43,East,91,0.0,0.0,77,0.00,,---,0.00,VWS V14.01,2013-02-10 12:31:00,
2013-02-10 07:33:00,26.1,19.9,30.43,East,91,0.0,0.0,77,0.00,,---,0.00,VWS V14.01,2013-02-10 12:33:00,
2013-02-10 07:35:00,26.1,19.9,30.43,East,91,0.0,0.0,77,0.00,,---,0.00,VWS V14.01,2013-02-10 12:35:00,
2013-02-10 07:37:00,26.1,20.2,30.43,East,91,0.0,0.0,78,0.00,,---,0.00,VWS V14.01,2013-02-10 12:37:00,
2013-02-10 07:39:00,26.3,20.1,30.43,East,91,0.0,0.0,77,0.00,,---,0.00,VWS V14.01,2013-02-10 12:39:00,
2013-02-10 07:41:00,26.3,20.1,30.43,East,91,0.0,0.0,77,0.00,,---,0.00,VWS V14.01,2013-02-10 12:41:00,
2013-02-10 07:43:00,26.4,20.2,30.43,East,91,0.0,0.0,77,0.00,,---,0.00,VWS V14.01,2013-02-10 12:43:00,
2013-02-10 07:45:00,26.4,19.9,30.43,East,91,0.0,0.0,76,0.00,,---,0.00,VWS V14.01,2013-02-10 12:45:00,
2013-02-10 07:47:00,26.6,20.4,30.43,East,91,0.0,0.0,77,0.00,,---,0.00,VWS V14.01,2013-02-10 12:47:00,
2013-02-10 07:49:00,26.6,20.4,30.43,East,91,0.0,0.0,77,0.00,,---,0.00,VWS V14.01,2013-02-10 12:49:00,
2013-02-10 07:51:00,26.7,20.5,30.43,East,91,0.0,0.0,77,0.00,,---,0.00,VWS V14.01,2013-02-10 12:51:00,
2013-02-10 07:53:00,26.9,20.7,30.43,East,91,0.0,0.0,77,0.00,,---,0.00,VWS V14.01,2013-02-10 12:53:00,
2013-02-10 07:55:00,26.9,20.7,30.43,East,91,0.0,0.0,77,0.00,,---,0.00,VWS V14.01,2013-02-10 12:55:00,
2013-02-10 07:57:00,27.0,20.8,30.43,East,91,0.0,0.0,77,0.00,,---,0.00,VWS V14.01,2013-02-10 12:57:00,
2013-02-10 07:59:00,27.0,20.8,30.43,East,91,0.0,0.0,77,0.00,,---,0.00,VWS V14.01,2013-02-10 12:59:00,
2013-02-10 08:00:00,27.2,21.0,30.43,East,91,0.0,0.0,77,0.00,,---,0.00,VWS V14.01,2013-02-10 13:00:00,
2013-02-10 08:01:00,27.2,21.0,30.43,East,91,0.0,0.0,77,0.00,,---,0.00,VWS V14.01,2013-02-10 13:01:00,
2013-02-10 08:03:00,27.3,21.1,30.43,East,91,0.0,0.0,77,0.00,,---,0.00,VWS V14.01,2013-02-10 13:03:00,
2013-02-10 08:05:00,27.5,21.2,30.43,East,91,0.0,0.0,77,0.00,,---,0.00,VWS V14.01,2013-02-10 13:05:00,
2013-02-10 08:07:00,27.5,21.5,30.43,East,91,0.0,0.0,78,0.00,,---,0.00,VWS V14.01,2013-02-10 13:07:00,
2013-02-10 08:09:00,27.6,21.4,30.43,East,91,0.0,0.0,77,0.00,,---,0.00,VWS V14.01,2013-02-10 13:09:00,
2013-02-10 08:11:00,27.8,20.9,30.43,East,91,0.0,0.0,75,0.00,,---,0.00,VWS V14.01,2013-02-10 13:11:00,
2013-02-10 08:13:00,27.9,20.4,30.43,East,91,0.0,0.0,73,0.00,,---,0.00,VWS V14.01,2013-02-10 13:13:00,
2013-02-10 08:15:00,28.1,20.9,30.44,East,91,0.0,0.0,74,0.00,,---,0.00,VWS V14.01,2013-02-10 13:15:00,
2013-02-10 08:17:00,28.4,20.9,30.44,East,91,0.0,0.0,73,0.00,,---,0.00,VWS V14.01,2013-02-10 13:17:00,
2013-02-10 08:19:00,28.5,21.0,30.44,East,91,0.0,0.0,73,0.00,,---,0.00,VWS V14.01,2013-02-10 13:19:00,
2013-02-10 08:21:00,28.7,20.5,30.44,East,91,0.0,0.0,71,0.00,,---,0.00,VWS V14.01,2013-02-10 13:21:00,
2013-02-10 08:23:00,28.8,20.3,30.44,East,91,0.0,0.0,70,0.00,,---,0.00,VWS V14.01,2013-02-10 13:23:00,
2013-02-10 08:25:00,29.0,20.8,30.44,East,91,0.0,0.0,71,0.00,,---,0.00,VWS V14.01,2013-02-10 13:25:00,
2013-02-10 08:27:00,29.1,20.9,30.44,East,91,0.0,0.0,71,0.00,,---,0.00,VWS V14.01,2013-02-10 13:27:00,
2013-02-10 08:29:00,29.4,20.8,30.44,East,91,0.0,0.0,70,0.00,,---,0.00,VWS V14.01,2013-02-10 13:29:00,
2013-02-10 08:30:00,29.4,20.5,30.44,East,91,0.0,0.0,69,0.00,,---,0.00,VWS V14.01,2013-02-10 13:30:00,
2013-02-10 08:31:00,29.5,20.6,30.44,East,91,0.0,0.0,69,0.00,,---,0.00,VWS V14.01,2013-02-10 13:31:00,
2013-02-10 08:33:00,29.7,20.1,30.44,East,91,0.0,0.0,67,0.00,,---,0.00,VWS V14.01,2013-02-10 13:33:00,
2013-02-10 08:35:00,29.8,19.8,30.44,East,91,0.0,0.0,66,0.00,,---,0.00,VWS V14.01,2013-02-10 13:35:00,
2013-02-10 08:37:00,30.0,20.4,30.44,East,91,0.0,0.0,67,0.00,,---,0.00,VWS V14.01,2013-02-10 13:37:00,
2013-02-10 08:39:00,30.3,20.3,30.44,East,91,0.0,0.0,66,0.00,,---,0.00,VWS V14.01,2013-02-10 13:39:00,
2013-02-10 08:41:00,30.3,20.0,30.44,East,91,0.0,0.0,65,0.00,,---,0.00,VWS V14.01,2013-02-10 13:41:00,
2013-02-10 08:43:00,30.4,19.7,30.44,East,91,0.0,0.0,64,0.00,,---,0.00,VWS V14.01,2013-02-10 13:43:00,
2013-02-10 08:45:00,30.6,19.1,30.44,East,91,0.0,0.0,62,0.00,,---,0.00,VWS V14.01,2013-02-10 13:45:00,
2013-02-10 08:47:00,30.7,19.2,30.44,East,91,0.0,0.0,62,0.00,,---,0.00,VWS V14.01,2013-02-10 13:47:00,
2013-02-10 08:49:00,30.9,19.4,30.44,East,91,0.0,0.0,62,0.00,,---,0.00,VWS V14.01,2013-02-10 13:49:00,
2013-02-10 08:51:00,31.0,19.9,30.44,East,91,0.0,0.0,63,0.00,,---,0.00,VWS V14.01,2013-02-10 13:51:00,
2013-02-10 08:53:00,31.2,19.7,30.44,East,91,0.0,0.0,62,0.00,,---,0.00,VWS V14.01,2013-02-10 13:53:00,
2013-02-10 08:55:00,31.3,19.8,30.44,East,91,0.0,0.0,62,0.00,,---,0.00,VWS V14.01,2013-02-10 13:55:00,
2013-02-10 08:57:00,31.5,19.6,30.44,East,91,0.0,0.0,61,0.00,,---,0.00,VWS V14.01,2013-02-10 13:57:00,
2013-02-10 08:59:00,31.6,19.7,30.44,East,91,0.0,0.0,61,0.00,,---,0.00,VWS V14.01,2013-02-10 13:59:00,
2013-02-10 09:00:00,31.6,20.5,30.44,East,91,0.0,0.0,63,0.00,,---,0.00,VWS V14.01,2013-02-10 14:00:00,
2013-02-10 09:01:00,31.8,21.0,30.44,East,91,0.0,0.0,64,0.00,,---,0.00,VWS V14.01,2013-02-10 14:01:00,
2013-02-10 09:03:00,31.9,20.8,30.44,East,91,0.0,0.0,63,0.00,,---,0.00,VWS V14.01,2013-02-10 14:03:00,
2013-02-10 09:05:00,32.1,20.2,30.44,East,91,0.0,0.0,61,0.00,,---,0.00,VWS V14.01,2013-02-10 14:05:00,
2013-02-10 09:07:00,32.2,19.5,30.44,East,91,0.0,0.0,59,0.00,,---,0.00,VWS V14.01,2013-02-10 14:07:00,
2013-02-10 09:09:00,32.4,20.1,30.44,East,91,0.0,0.0,60,0.00,,---,0.00,VWS V14.01,2013-02-10 14:09:00,
2013-02-10 09:11:00,32.5,20.2,30.44,East,91,0.0,0.0,60,0.00,,---,0.00,VWS V14.01,2013-02-10 14:11:00,
2013-02-10 09:13:00,32.7,19.6,30.44,East,91,0.0,0.0,58,0.00,,---,0.00,VWS V14.01,2013-02-10 14:13:00,
2013-02-10 09:15:00,32.8,19.3,30.44,East,91,0.0,0.0,57,0.00,,---,0.00,VWS V14.01,2013-02-10 14:15:00,
2013-02-10 09:17:00,32.9,19.8,30.44,East,91,0.0,0.0,58,0.00,,---,0.00,VWS V14.01,2013-02-10 14:17:00,
2013-02-10 09:19:00,33.1,19.9,30.44,East,91,0.0,0.0,58,0.00,,---,0.00,VWS V14.01,2013-02-10 14:19:00,
2013-02-10 09:21:00,33.2,20.0,30.44,East,91,0.0,0.0,58,0.00,,---,0.00,VWS V14.01,2013-02-10 14:21:00,
2013-02-10 09:23:00,33.4,20.2,30.44,East,91,0.0,0.0,58,0.00,,---,0.00,VWS V14.01,2013-02-10 14:23:00,
2013-02-10 09:27:00,33.7,20.9,30.44,East,90,0.0,2.0,59,0.00,,---,0.00,VWS V14.01,2013-02-10 14:27:00,
2013-02-10 09:29:00,33.8,20.6,30.44,East,90,0.0,2.0,58,0.00,,---,0.00,VWS V14.01,2013-02-10 14:29:00,
2013-02-10 09:30:00,33.8,20.6,30.44,East,90,0.0,2.0,58,0.00,,---,0.00,VWS V14.01,2013-02-10 14:30:00,
2013-02-10 09:31:00,33.8,21.0,30.44,East,90,0.0,0.0,59,0.00,,---,0.00,VWS V14.01,2013-02-10 14:31:00,
2013-02-10 09:33:00,34.0,21.2,30.44,East,90,0.0,0.0,59,0.00,,---,0.00,VWS V14.01,2013-02-10 14:33:00,
2013-02-10 09:35:00,34.1,21.3,30.44,East,90,1.0,1.0,59,0.00,,---,0.00,VWS V14.01,2013-02-10 14:35:00,
2013-02-10 09:37:00,33.5,20.7,30.44,East,90,0.0,2.0,59,0.00,,---,0.00,VWS V14.01,2013-02-10 14:37:00,
2013-02-10 09:45:00,34.6,20.5,30.44,WNW,293,0.0,2.0,56,0.00,,---,0.00,VWS V14.01,2013-02-10 14:45:00,
2013-02-10 09:49:00,35.0,20.5,30.44,SSE,159,0.0,2.0,55,0.00,,---,0.00,VWS V14.01,2013-02-10 14:49:00,
2013-02-10 09:51:00,34.3,21.1,30.44,WNW,293,0.0,2.0,58,0.00,,---,0.00,VWS V14.01,2013-02-10 14:51:00,
2013-02-10 09:53:00,35.2,19.8,30.44,South,186,0.0,2.0,53,0.00,,---,0.00,VWS V14.01,2013-02-10 14:53:00,
2013-02-10 09:55:00,35.3,19.5,30.44,SE,139,0.0,2.0,52,0.00,,---,0.00,VWS V14.01,2013-02-10 14:55:00,
2013-02-10 09:57:00,34.7,20.6,30.44,WNW,301,0.0,0.0,56,0.00,,---,0.00,VWS V14.01,2013-02-10 14:57:00,
2013-02-10 09:59:00,35.5,19.2,30.43,SE,129,0.0,2.0,51,0.00,,---,0.00,VWS V14.01,2013-02-10 14:59:00,
2013-02-10 10:00:00,35.5,19.2,30.43,SE,129,0.0,2.0,51,0.00,,---,0.00,VWS V14.01,2013-02-10 15:00:00,
2013-02-10 10:01:00,35.6,19.3,30.43,SE,129,0.0,1.0,51,0.00,,---,0.00,VWS V14.01,2013-02-10 15:01:00,
2013-02-10 10:03:00,35.8,19.5,30.43,SE,129,1.0,1.0,51,0.00,,---,0.00,VWS V14.01,2013-02-10 15:03:00,
2013-02-10 10:09:00,36.2,19.8,30.43,SE,127,0.0,1.0,51,0.00,,---,0.00,VWS V14.01,2013-02-10 15:09:00,
2013-02-10 10:11:00,36.3,18.5,30.43,SSE,155,2.0,2.0,48,0.00,,---,0.00,VWS V14.01,2013-02-10 15:11:00,
2013-02-10 10:13:00,36.6,18.3,30.43,SE,125,2.0,4.0,47,0.00,,---,0.00,VWS V14.01,2013-02-10 15:13:00,
2013-02-10 10:15:00,36.8,18.0,30.45,SE,127,0.0,4.0,46,0.00,,---,0.00,VWS V14.01,2013-02-10 15:15:00,
2013-02-10 10:17:00,35.9,20.0,30.43,SE,127,0.0,1.0,52,0.00,,---,0.00,VWS V14.01,2013-02-10 15:17:00,
2013-02-10 10:19:00,37.2,18.3,30.45,ESE,110,1.0,4.0,46,0.00,,---,0.00,VWS V14.01,2013-02-10 15:19:00,
2013-02-10 10:21:00,37.3,17.4,30.45,ESE,116,0.0,4.0,44,0.00,,---,0.00,VWS V14.01,2013-02-10 15:21:00,
2013-02-10 10:29:00,38.2,17.1,30.43,SE,129,0.0,4.0,42,0.00,,---,0.00,VWS V14.01,2013-02-10 15:29:00,
2013-02-10 10:30:00,38.2,17.1,30.43,SE,129,0.0,4.0,42,0.00,,---,0.00,VWS V14.01,2013-02-10 15:30:00,
2013-02-10 10:31:00,38.3,18.3,30.43,ENE,72,0.0,2.0,44,0.00,,---,0.00,VWS V14.01,2013-02-10 15:31:00,
2013-02-10 10:33:00,38.6,16.4,30.43,East,97,0.0,4.0,40,0.00,,---,0.00,VWS V14.01,2013-02-10 15:33:00,
2013-02-10 10:35:00,37.5,16.5,30.45,SSE,163,3.0,4.0,42,0.00,,---,0.00,VWS V14.01,2013-02-10 15:35:00,
2013-02-10 10:37:00,38.9,17.8,30.43,East,97,0.0,4.0,42,0.00,,---,0.00,VWS V14.01,2013-02-10 15:37:00,
2013-02-10 10:40:00,38.9,16.6,30.43,SSE,155,1.0,4.0,40,0.00,,---,0.00,VWS V14.01,2013-02-10 15:40:00,
2013-02-10 10:41:00,39.1,16.8,30.43,ESE,122,1.0,4.0,40,0.00,,---,0.00,VWS V14.01,2013-02-10 15:41:00,
2013-02-10 10:43:00,39.2,16.9,30.43,ESE,119,0.0,4.0,40,0.00,,---,0.00,VWS V14.01,2013-02-10 15:43:00,
2013-02-10 10:45:00,39.2,17.5,30.43,ESE,119,0.0,4.0,41,0.00,,---,0.00,VWS V14.01,2013-02-10 15:45:00,
2013-02-10 10:48:00,39.6,17.3,30.43,ESE,119,0.0,1.0,40,0.00,,---,0.00,VWS V14.01,2013-02-10 15:48:00,
2013-02-10 10:50:00,39.9,17.0,30.43,ENE,58,1.0,3.0,39,0.00,,---,0.00,VWS V14.01,2013-02-10 15:50:00,
2013-02-10 10:51:00,40.2,17.8,30.43,ENE,58,0.0,3.0,40,0.00,,---,0.00,VWS V14.01,2013-02-10 15:51:00,
2013-02-10 10:54:00,40.3,16.1,30.43,ESE,109,2.0,3.0,37,0.00,,---,0.00,VWS V14.01,2013-02-10 15:54:00,
2013-02-10 10:55:00,40.5,16.9,30.43,SSE,158,0.0,3.0,38,0.00,,---,0.00,VWS V14.01,2013-02-10 15:55:00,
2013-02-10 10:57:00,40.2,16.0,30.43,SSW,197,0.0,3.0,37,0.00,,---,0.00,VWS V14.01,2013-02-10 15:57:00,
2013-02-10 11:00:00,40.2,17.8,30.42,South,176,3.0,3.0,40,0.00,,---,0.00,VWS V14.01,2013-02-10 16:00:00,
2013-02-10 11:02:00,40.3,17.3,30.42,SE,146,3.0,4.0,39,0.00,,---,0.00,VWS V14.01,2013-02-10 16:02:00,
2013-02-10 11:04:00,40.6,17.0,30.42,East,86,0.0,4.0,38,0.00,,---,0.00,VWS V14.01,2013-02-10 16:04:00,
2013-02-10 11:06:00,40.8,17.2,30.42,ESE,109,0.0,4.0,38,0.00,,---,0.00,VWS V14.01,2013-02-10 16:06:00,
2013-02-10 11:08:00,41.1,15.6,30.42,WSW,247,0.0,4.0,35,0.00,,---,0.00,VWS V14.01,2013-02-10 16:08:00,
2013-02-10 11:10:00,41.1,16.2,30.42,WSW,247,0.0,4.0,36,0.00,,---,0.00,VWS V14.01,2013-02-10 16:10:00,
2013-02-10 11:12:00,40.9,16.0,30.42,WSW,247,0.0,4.0,36,0.00,,---,0.00,VWS V14.01,2013-02-10 16:12:00,
2013-02-10 11:14:00,40.9,16.6,30.42,ENE,75,3.0,4.0,37,0.00,,---,0.00,VWS V14.01,2013-02-10 16:14:00,
2013-02-10 11:15:00,40.9,16.6,30.42,East,85,2.0,4.0,37,0.00,,---,0.00,VWS V14.01,2013-02-10 16:15:00,
2013-02-10 11:16:00,40.9,16.6,30.42,East,86,0.0,2.0,37,0.00,,---,0.00,VWS V14.01,2013-02-10 16:16:00,
2013-02-10 11:18:00,40.9,16.0,30.42,East,85,0.0,2.0,36,0.00,,---,0.00,VWS V14.01,2013-02-10 16:18:00,
2013-02-10 11:20:00,40.8,15.9,30.42,East,85,0.0,2.0,36,0.00,,---,0.00,VWS V14.01,2013-02-10 16:20:00,
2013-02-10 11:22:00,40.6,16.4,30.42,East,98,0.0,2.0,37,0.00,,---,0.00,VWS V14.01,2013-02-10 16:22:00,
2013-02-10 11:24:00,40.8,18.4,30.42,SSE,158,0.0,2.0,40,0.00,,---,0.00,VWS V14.01,2013-02-10 16:24:00,
2013-02-10 11:26:00,40.8,16.6,30.42,SSE,157,0.0,2.0,37,0.00,,---,0.00,VWS V14.01,2013-02-10 16:26:00,
2013-02-10 11:28:00,41.1,18.6,30.42,ESE,102,0.0,2.0,40,0.00,,---,0.00,VWS V14.01,2013-02-10 16:28:00,
2013-02-10 11:30:00,41.3,18.2,30.42,ESE,121,0.0,2.0,39,0.00,,---,0.00,VWS V14.01,2013-02-10 16:30:00,
2013-02-10 11:32:00,41.8,18.1,30.42,SE,144,0.0,4.0,38,0.00,,---,0.00,VWS V14.01,2013-02-10 16:32:00,
2013-02-10 11:34:00,42.2,17.8,30.42,SE,138,3.0,5.0,37,0.00,,---,0.00,VWS V14.01,2013-02-10 16:34:00,
2013-02-10 11:36:00,42.6,17.5,30.42,SE,138,0.0,5.0,36,0.00,,---,0.00,VWS V14.01,2013-02-10 16:36:00,
2013-02-10 11:38:00,42.8,17.7,30.42,SSE,148,0.0,5.0,36,0.00,,---,0.00,VWS V14.01,2013-02-10 16:38:00,
2013-02-10 11:40:00,43.1,17.3,30.42,South,173,0.0,5.0,35,0.00,,---,0.00,VWS V14.01,2013-02-10 16:40:00,
2013-02-10 11:42:00,43.2,16.7,30.42,SW,214,0.0,5.0,34,0.00,,---,0.00,VWS V14.01,2013-02-10 16:42:00,
2013-02-10 11:44:00,43.2,17.4,30.40,SW,214,0.0,5.0,35,0.00,,---,0.00,VWS V14.01,2013-02-10 16:44:00,
2013-02-10 11:45:00,43.1,16.7,30.40,SSW,193,0.0,5.0,34,0.00,,---,0.00,VWS V14.01,2013-02-10 16:45:00,
2013-02-10 11:46:00,43.1,18.6,30.40,SSW,193,0.0,0.0,37,0.00,,---,0.00,VWS V14.01,2013-02-10 16:46:00,
2013-02-10 11:48:00,43.1,18.0,30.40,South,188,3.0,5.0,36,0.00,,---,0.00,VWS V14.01,2013-02-10 16:48:00,
2013-02-10 11:50:00,43.2,17.4,30.40,SSE,148,2.0,5.0,35,0.00,,---,0.00,VWS V14.01,2013-02-10 16:50:00,
2013-02-10 11:52:00,43.2,16.7,30.40,South,174,0.0,5.0,34,0.00,,---,0.00,VWS V14.01,2013-02-10 16:52:00,
2013-02-10 11:54:00,43.3,18.2,30.40,SSE,161,4.0,5.0,36,0.00,,---,0.00,VWS V14.01,2013-02-10 16:54:00,
2013-02-10 11:56:00,43.5,17.7,30.40,SSE,153,0.0,5.0,35,0.00,,---,0.00,VWS V14.01,2013-02-10 16:56:00,
2013-02-10 11:58:00,43.6,17.8,30.40,South,173,2.0,5.0,35,0.00,,---,0.00,VWS V14.01,2013-02-10 16:58:00,
2013-02-10 12:00:00,43.8,17.3,30.39,South,169,0.0,5.0,34,0.00,,---,0.00,VWS V14.01,2013-02-10 17:00:00,
2013-02-10 12:02:00,43.9,18.0,30.39,SSE,159,1.0,5.0,35,0.00,,---,0.00,VWS V14.01,2013-02-10 17:02:00,
2013-02-10 12:04:00,43.9,17.4,30.39,SSE,162,0.0,5.0,34,0.00,,---,0.00,VWS V14.01,2013-02-10 17:04:00,
2013-02-10 12:06:00,44.1,17.5,30.39,SE,146,0.0,5.0,34,0.00,,---,0.00,VWS V14.01,2013-02-10 17:06:00,
2013-02-10 12:08:00,44.2,18.3,30.39,NE,56,0.0,5.0,35,0.00,,---,0.00,VWS V14.01,2013-02-10 17:08:00,
2013-02-10 12:10:00,44.3,18.4,30.39,NE,56,0.0,5.0,35,0.00,,---,0.00,VWS V14.01,2013-02-10 17:10:00,
2013-02-10 12:12:00,44.3,17.7,30.39,SW,231,0.0,6.0,34,0.00,,---,0.00,VWS V14.01,2013-02-10 17:12:00,
2013-02-10 12:14:00,44.3,17.7,30.37,SSE,148,0.0,6.0,34,0.00,,---,0.00,VWS V14.01,2013-02-10 17:14:00,
2013-02-10 12:15:00,44.5,17.9,30.37,SE,141,4.0,6.0,34,0.00,,---,0.00,VWS V14.01,2013-02-10 17:15:00,
2013-02-10 12:16:00,44.5,17.2,30.37,SSW,195,0.0,4.0,33,0.00,,---,0.00,VWS V14.01,2013-02-10 17:16:00,
2013-02-10 12:18:00,44.3,17.0,30.37,SSW,211,2.0,5.0,33,0.00,,---,0.00,VWS V14.01,2013-02-10 17:18:00,
2013-02-10 12:20:00,44.1,18.2,30.37,ESE,115,3.0,5.0,35,0.00,,---,0.00,VWS V14.01,2013-02-10 17:20:00,
2013-02-10 12:22:00,44.1,18.2,30.37,WSW,242,0.0,5.0,35,0.00,,---,0.00,VWS V14.01,2013-02-10 17:22:00,
2013-02-10 12:24:00,44.1,18.2,30.37,SW,214,0.0,5.0,35,0.00,,---,0.00,VWS V14.01,2013-02-10 17:24:00,
2013-02-10 12:26:00,44.1,18.2,30.37,SW,214,3.0,5.0,35,0.00,,---,0.00,VWS V14.01,2013-02-10 17:26:00,
2013-02-10 12:28:00,44.1,17.5,30.37,SW,214,1.0,5.0,34,0.00,,---,0.00,VWS V14.01,2013-02-10 17:28:00,
2013-02-10 12:30:00,44.1,17.5,30.36,SSW,194,0.0,5.0,34,0.00,,---,0.00,VWS V14.01,2013-02-10 17:30:00,
2013-02-10 12:32:00,44.2,18.3,30.36,SE,134,3.0,5.0,35,0.00,,---,0.00,VWS V14.01,2013-02-10 17:32:00,
2013-02-10 12:34:00,44.5,18.6,30.36,SE,138,3.0,5.0,35,0.00,,---,0.00,VWS V14.01,2013-02-10 17:34:00,
2013-02-10 12:36:00,44.8,18.2,30.36,SE,134,3.0,6.0,34,0.00,,---,0.00,VWS V14.01,2013-02-10 17:36:00,
2013-02-10 12:38:00,44.9,17.6,30.36,SE,125,0.0,6.0,33,0.00,,---,0.00,VWS V14.01,2013-02-10 17:38:00,
2013-02-10 12:40:00,45.1,17.0,30.36,SW,216,0.0,6.0,32,0.00,,---,0.00,VWS V14.01,2013-02-10 17:40:00,
2013-02-10 12:42:00,44.9,18.2,30.36,SW,216,0.0,6.0,34,0.00,,---,0.00,VWS V14.01,2013-02-10 17:42:00,
2013-02-10 12:44:00,45.1,18.4,30.35,SE,146,5.0,6.0,34,0.00,,---,0.00,VWS V14.01,2013-02-10 17:44:00,
2013-02-10 12:45:00,45.1,18.4,30.35,SE,139,3.0,6.0,34,0.00,,---,0.00,VWS V14.01,2013-02-10 17:45:00,
2013-02-10 12:46:00,45.2,18.5,30.35,SSE,147,3.0,6.0,34,0.00,,---,0.00,VWS V14.01,2013-02-10 17:46:00,
2013-02-10 12:48:00,45.5,17.4,30.35,SE,125,3.0,6.0,32,0.00,,---,0.00,VWS V14.01,2013-02-10 17:48:00,
2013-02-10 12:50:00,45.8,17.6,30.35,WSW,257,5.0,6.0,32,0.00,,---,0.00,VWS V14.01,2013-02-10 17:50:00,
2013-02-10 12:52:00,45.8,18.4,30.35,SSE,150,1.0,6.0,33,0.00,,---,0.00,VWS V14.01,2013-02-10 17:52:00,
2013-02-10 12:54:00,46.0,17.8,30.35,South,169,0.0,6.0,32,0.00,,---,0.00,VWS V14.01,2013-02-10 17:54:00,
2013-02-10 12:56:00,46.1,17.2,30.35,SE,143,2.0,6.0,31,0.00,,---,0.00,VWS V14.01,2013-02-10 17:56:00,
2013-02-10 12:58:00,46.2,18.0,30.35,SSE,148,2.0,6.0,32,0.00,,---,0.00,VWS V14.01,2013-02-10 17:58:00,
2013-02-10 13:00:00,46.4,18.2,30.34,South,186,0.0,6.0,32,0.00,,---,0.00,VWS V14.01,2013-02-10 18:00:00,
2013-02-10 13:02:00,46.5,17.5,30.34,SSE,150,1.0,4.0,31,0.00,,---,0.00,VWS V14.01,2013-02-10 18:02:00,
2013-02-10 13:04:00,46.7,17.7,30.34,NE,53,0.0,4.0,31,0.00,,---,0.00,VWS V14.01,2013-02-10 18:04:00,
2013-02-10 13:06:00,46.8,18.5,30.34,ESE,103,2.0,4.0,32,0.00,,---,0.00,VWS V14.01,2013-02-10 18:06:00,
2013-02-10 13:08:00,47.0,18.7,30.34,ESE,106,0.0,5.0,32,0.00,,---,0.00,VWS V14.01,2013-02-10 18:08:00,
2013-02-10 13:10:00,47.3,19.7,30.34,East,95,0.0,5.0,33,0.00,,---,0.00,VWS V14.01,2013-02-10 18:10:00,
2013-02-10 13:12:00,47.4,18.3,30.34,SE,134,5.0,5.0,31,0.00,,---,0.00,VWS V14.01,2013-02-10 18:12:00,
2013-02-10 13:14:00,47.7,17.8,30.33,SE,141,1.0,5.0,30,0.00,,---,0.00,VWS V14.01,2013-02-10 18:14:00,
2013-02-10 13:15:00,47.7,17.8,30.33,SE,139,1.0,5.0,30,0.00,,---,0.00,VWS V14.01,2013-02-10 18:15:00,
2013-02-10 13:16:00,47.9,18.0,30.33,SE,127,0.0,1.0,30,0.00,,---,0.00,VWS V14.01,2013-02-10 18:16:00,
2013-02-10 13:18:00,48.0,18.1,30.33,SE,139,0.0,5.0,30,0.00,,---,0.00,VWS V14.01,2013-02-10 18:18:00,
2013-02-10 13:20:00,48.2,18.2,30.33,SE,131,2.0,5.0,30,0.00,,---,0.00,VWS V14.01,2013-02-10 18:20:00,
2013-02-10 13:22:00,48.3,19.1,30.33,ENE,72,2.0,5.0,31,0.00,,---,0.00,VWS V14.01,2013-02-10 18:22:00,
2013-02-10 13:24:00,48.5,19.3,30.33,East,83,0.0,5.0,31,0.00,,---,0.00,VWS V14.01,2013-02-10 18:24:00,
2013-02-10 13:28:00,48.9,19.6,30.33,SSE,160,0.0,5.0,31,0.00,,---,0.00,VWS V14.01,2013-02-10 18:28:00,
2013-02-10 13:30:00,49.1,19.0,30.31,SSW,197,3.0,5.0,30,0.00,,---,0.00,VWS V14.01,2013-02-10 18:30:00,
2013-02-10 13:32:00,48.9,18.9,30.31,ESE,122,4.0,4.0,30,0.00,,---,0.00,VWS V14.01,2013-02-10 18:32:00,
2013-02-10 13:34:00,49.1,18.2,30.31,SE,142,5.0,5.0,29,0.00,,---,0.00,VWS V14.01,2013-02-10 18:34:00,
2013-02-10 13:36:00,49.1,17.4,30.31,SE,134,3.0,7.0,28,0.00,,---,0.00,VWS V14.01,2013-02-10 18:36:00,
2013-02-10 13:38:00,48.8,18.8,30.33,East,95,2.0,5.0,30,0.00,,---,0.00,VWS V14.01,2013-02-10 18:38:00,
2013-02-10 13:42:00,48.9,18.1,30.31,SSW,211,0.0,7.0,29,0.00,,---,0.00,VWS V14.01,2013-02-10 18:42:00,
2013-02-10 13:44:00,49.1,18.2,30.31,ESE,105,1.0,7.0,29,0.00,,---,0.00,VWS V14.01,2013-02-10 18:44:00,
2013-02-10 13:45:00,49.1,18.2,30.31,ESE,109,2.0,7.0,29,0.00,,---,0.00,VWS V14.01,2013-02-10 18:45:00,
2013-02-10 13:46:00,49.2,19.1,30.31,ESE,122,2.0,5.0,30,0.00,,---,0.00,VWS V14.01,2013-02-10 18:46:00,
2013-02-10 13:48:00,49.5,17.8,30.31,East,99,0.0,5.0,28,0.00,,---,0.00,VWS V14.01,2013-02-10 18:48:00,
2013-02-10 13:50:00,49.8,18.0,30.31,SE,132,0.0,5.0,28,0.00,,---,0.00,VWS V14.01,2013-02-10 18:50:00,
2013-02-10 13:52:00,49.1,19.0,30.31,SW,214,0.0,7.0,30,0.00,,---,0.00,VWS V14.01,2013-02-10 18:52:00,
2013-02-10 13:54:00,50.2,17.5,30.31,ESE,120,2.0,5.0,27,0.00,,---,0.00,VWS V14.01,2013-02-10 18:54:00,
2013-02-10 13:56:00,50.4,18.5,30.31,SSE,149,4.0,7.0,28,0.00,,---,0.00,VWS V14.01,2013-02-10 18:56:00,
2013-02-10 13:58:00,50.5,18.6,30.31,SE,134,0.0,7.0,28,0.00,,---,0.00,VWS V14.01,2013-02-10 18:58:00,
2013-02-10 14:00:00,50.7,18.8,30.30,South,171,2.0,7.0,28,0.00,,---,0.00,VWS V14.01,2013-02-10 19:00:00,
2013-02-10 14:03:00,50.8,18.9,30.30,ESE,120,3.0,4.0,28,0.00,,---,0.00,VWS V14.01,2013-02-10 19:03:00,
2013-02-10 14:04:00,49.9,17.3,30.31,WSW,238,0.0,5.0,27,0.00,,---,0.00,VWS V14.01,2013-02-10 19:04:00,
2013-02-10 14:09:00,51.3,18.5,30.30,ESE,107,0.0,7.0,27,0.00,,---,0.00,VWS V14.01,2013-02-10 19:09:00,
2013-02-10 14:11:00,51.6,19.6,30.30,SSE,162,4.0,7.0,28,0.00,,---,0.00,VWS V14.01,2013-02-10 19:11:00,
2013-02-10 14:12:00,50.7,18.0,30.30,SE,139,0.0,4.0,27,0.00,,---,0.00,VWS V14.01,2013-02-10 19:12:00,
2013-02-10 14:13:00,51.7,19.7,30.30,SSE,157,4.0,7.0,28,0.00,,---,0.00,VWS V14.01,2013-02-10 19:13:00,
2013-02-10 14:15:00,51.6,18.7,30.28,South,191,0.0,7.0,27,0.00,,---,0.00,VWS V14.01,2013-02-10 19:15:00,
2013-02-10 14:17:00,51.6,18.7,30.28,SSE,168,3.0,5.0,27,0.00,,---,0.00,VWS V14.01,2013-02-10 19:17:00,
2013-02-10 14:19:00,51.1,19.1,30.30,ENE,61,0.0,7.0,28,0.00,,---,0.00,VWS V14.01,2013-02-10 19:19:00,
2013-02-10 14:21:00,51.9,18.1,30.28,SSE,168,0.0,6.0,26,0.00,,---,0.00,VWS V14.01,2013-02-10 19:21:00,
2013-02-10 14:23:00,52.0,18.2,30.28,SSE,158,4.0,6.0,26,0.00,,---,0.00,VWS V14.01,2013-02-10 19:23:00,
2013-02-10 14:25:00,52.0,18.2,30.28,South,181,2.0,6.0,26,0.00,,---,0.00,VWS V14.01,2013-02-10 19:25:00,
2013-02-10 14:27:00,52.0,18.2,30.28,SSE,150,0.0,6.0,26,0.00,,---,0.00,VWS V14.01,2013-02-10 19:27:00,
2013-02-10 14:29:00,51.9,19.0,30.27,WSW,245,3.0,6.0,27,0.00,,---,0.00,VWS V14.01,2013-02-10 19:29:00,
2013-02-10 14:30:00,51.9,18.1,30.27,SW,217,6.0,9.0,26,0.00,,---,0.00,VWS V14.01,2013-02-10 19:30:00,
2013-02-10 14:31:00,51.6,17.9,30.27,South,171,0.0,6.0,26,0.00,,---,0.00,VWS V14.01,2013-02-10 19:31:00,
2013-02-10 14:33:00,51.6,18.7,30.27,South,187,1.0,6.0,27,0.00,,---,0.00,VWS V14.01,2013-02-10 19:33:00,
2013-02-10 14:35:00,51.7,18.8,30.27,SE,136,1.0,6.0,27,0.00,,---,0.00,VWS V14.01,2013-02-10 19:35:00,
2013-02-10 14:37:00,51.7,17.9,30.27,South,191,0.0,6.0,26,0.00,,---,0.00,VWS V14.01,2013-02-10 19:37:00,
2013-02-10 14:39:00,51.7,18.8,30.27,SE,143,2.0,6.0,27,0.00,,---,0.00,VWS V14.01,2013-02-10 19:39:00,
2013-02-10 14:41:00,51.7,17.0,30.27,SSW,212,2.0,7.0,25,0.00,,---,0.00,VWS V14.01,2013-02-10 19:41:00,
2013-02-10 14:43:00,51.6,17.9,30.27,SSE,148,4.0,7.0,26,0.00,,---,0.00,VWS V14.01,2013-02-10 19:43:00,
2013-02-10 14:45:00,51.6,17.9,30.26,SE,127,3.0,7.0,26,0.00,,---,0.00,VWS V14.01,2013-02-10 19:45:00,
2013-02-10 14:47:00,51.6,17.9,30.26,SSE,148,2.0,6.0,26,0.00,,---,0.00,VWS V14.01,2013-02-10 19:47:00,
2013-02-10 14:49:00,51.6,17.9,30.26,ENE,60,2.0,6.0,26,0.00,,---,0.00,VWS V14.01,2013-02-10 19:49:00,
2013-02-10 14:51:00,51.6,17.9,30.26,SE,141,6.0,6.0,26,0.00,,---,0.00,VWS V14.01,2013-02-10 19:51:00,
2013-02-10 14:53:00,51.6,17.9,30.26,SSW,192,3.0,6.0,26,0.00,,---,0.00,VWS V14.01,2013-02-10 19:53:00,
2013-02-10 14:55:00,51.6,18.7,30.26,SE,143,3.0,6.0,27,0.00,,---,0.00,VWS V14.01,2013-02-10 19:55:00,
2013-02-10 14:57:00,51.7,18.8,30.26,SE,143,0.0,6.0,27,0.00,,---,0.00,VWS V14.01,2013-02-10 19:57:00,
2013-02-10 14:59:00,51.7,17.9,30.25,SE,129,3.0,6.0,26,0.00,,---,0.00,VWS V14.01,2013-02-10 19:59:00,
2013-02-10 15:00:00,51.7,17.9,30.25,SE,129,0.0,6.0,26,0.00,,---,0.00,VWS V14.01,2013-02-10 20:00:00,
2013-02-10 15:01:00,51.7,18.8,30.25,SSE,154,2.0,3.0,27,0.00,,---,0.00,VWS V14.01,2013-02-10 20:01:00,
2013-02-10 15:03:00,51.7,17.9,30.25,SSE,163,4.0,10.0,26,0.00,,---,0.00,VWS V14.01,2013-02-10 20:03:00,
2013-02-10 15:05:00,51.6,17.9,30.25,SE,126,6.0,10.0,26,0.00,,---,0.00,VWS V14.01,2013-02-10 20:05:00,
2013-02-10 15:07:00,51.6,17.9,30.25,SSE,149,4.0,10.0,26,0.00,,---,0.00,VWS V14.01,2013-02-10 20:07:00,
2013-02-10 15:09:00,51.6,17.9,30.25,SE,146,3.0,10.0,26,0.00,,---,0.00,VWS V14.01,2013-02-10 20:09:00,
2013-02-10 15:11:00,51.6,17.0,30.25,SSE,148,0.0,10.0,25,0.00,,---,0.00,VWS V14.01,2013-02-10 20:11:00,
2013-02-10 15:13:00,51.4,17.7,30.25,SE,140,2.0,10.0,26,0.00,,---,0.00,VWS V14.01,2013-02-10 20:13:00,
2013-02-10 15:15:00,51.6,17.9,30.25,SE,145,2.0,10.0,26,0.00,,---,0.00,VWS V14.01,2013-02-10 20:15:00,
2013-02-10 15:17:00,51.6,17.0,30.25,SSE,167,2.0,5.0,25,0.00,,---,0.00,VWS V14.01,2013-02-10 20:17:00,
2013-02-10 15:19:00,51.7,17.9,30.25,SSE,150,0.0,5.0,26,0.00,,---,0.00,VWS V14.01,2013-02-10 20:19:00,
2013-02-10 15:21:00,51.7,18.8,30.25,SSE,149,6.0,6.0,27,0.00,,---,0.00,VWS V14.01,2013-02-10 20:21:00,
2013-02-10 15:23:00,51.9,18.1,30.25,SSE,155,0.0,6.0,26,0.00,,---,0.00,VWS V14.01,2013-02-10 20:23:00,
2013-02-10 15:25:00,51.9,18.1,30.25,SE,136,2.0,6.0,26,0.00,,---,0.00,VWS V14.01,2013-02-10 20:25:00,
2013-02-10 15:27:00,51.9,18.1,30.25,SSE,148,0.0,6.0,26,0.00,,---,0.00,VWS V14.01,2013-02-10 20:27:00,
2013-02-10 15:29:00,51.9,19.0,30.26,South,179,4.0,6.0,27,0.00,,---,0.00,VWS V14.01,2013-02-10 20:29:00,
2013-02-10 15:30:00,51.9,18.1,30.26,South,179,1.0,6.0,26,0.00,,---,0.00,VWS V14.01,2013-02-10 20:30:00,
2013-02-10 15:31:00,51.9,18.1,30.26,SSE,150,4.0,6.0,26,0.00,,---,0.00,VWS V14.01,2013-02-10 20:31:00,
2013-02-10 15:33:00,51.9,17.2,30.26,South,184,1.0,6.0,25,0.00,,---,0.00,VWS V14.01,2013-02-10 20:33:00,
2013-02-10 15:35:00,51.9,17.2,30.26,SE,136,3.0,6.0,25,0.00,,---,0.00,VWS V14.01,2013-02-10 20:35:00,
2013-02-10 15:37:00,51.9,17.2,30.26,SE,134,0.0,6.0,25,0.00,,---,0.00,VWS V14.01,2013-02-10 20:37:00,
2013-02-10 15:39:00,52.0,17.3,30.26,SSE,155,1.0,6.0,25,0.00,,---,0.00,VWS V14.01,2013-02-10 20:39:00,
2013-02-10 15:41:00,52.0,17.3,30.26,SE,146,2.0,6.0,25,0.00,,---,0.00,VWS V14.01,2013-02-10 20:41:00,
2013-02-10 15:43:00,52.2,17.5,30.26,SSE,147,4.0,6.0,25,0.00,,---,0.00,VWS V14.01,2013-02-10 20:43:00,
2013-02-10 15:45:00,52.2,19.2,30.26,SSE,158,4.0,6.0,27,0.00,,---,0.00,VWS V14.01,2013-02-10 20:45:00,
2013-02-10 15:47:00,52.2,17.5,30.26,SSE,160,4.0,7.0,25,0.00,,---,0.00,VWS V14.01,2013-02-10 20:47:00,
2013-02-10 15:49:00,52.0,18.2,30.26,SE,140,1.0,7.0,26,0.00,,---,0.00,VWS V14.01,2013-02-10 20:49:00,
2013-02-10 15:51:00,52.0,18.2,30.26,SSW,202,5.0,7.0,26,0.00,,---,0.00,VWS V14.01,2013-02-10 20:51:00,
2013-02-10 15:53:00,51.9,17.2,30.26,South,172,2.0,7.0,25,0.00,,---,0.00,VWS V14.01,2013-02-10 20:53:00,
2013-02-10 15:55:00,51.7,17.9,30.26,SSE,147,3.0,7.0,26,0.00,,---,0.00,VWS V14.01,2013-02-10 20:55:00,
2013-02-10 15:57:00,51.6,17.0,30.26,SE,146,0.0,7.0,25,0.00,,---,0.00,VWS V14.01,2013-02-10 20:57:00,
2013-02-10 15:59:00,51.4,17.7,30.25,South,181,4.0,7.0,26,0.00,,---,0.00,VWS V14.01,2013-02-10 20:59:00,
2013-02-10 16:00:00,51.4,17.7,30.25,SE,130,2.0,7.0,26,0.00,,---,0.00,VWS V14.01,2013-02-10 21:00:00,
2013-02-10 16:01:00,51.4,17.7,30.25,SSW,195,1.0,3.0,26,0.00,,---,0.00,VWS V14.01,2013-02-10 21:01:00,
2013-02-10 16:03:00,51.3,18.5,30.25,SE,126,0.0,3.0,27,0.00,,---,0.00,VWS V14.01,2013-02-10 21:03:00,
2013-02-10 16:05:00,51.1,17.4,30.25,SE,139,3.0,4.0,26,0.00,,---,0.00,VWS V14.01,2013-02-10 21:05:00,
2013-02-10 16:07:00,51.1,17.4,30.25,SSE,153,1.0,4.0,26,0.00,,---,0.00,VWS V14.01,2013-02-10 21:07:00,
2013-02-10 16:09:00,51.3,18.5,30.25,SE,141,4.0,5.0,27,0.00,,---,0.00,VWS V14.01,2013-02-10 21:09:00,
2013-02-10 16:11:00,51.3,17.6,30.25,South,188,3.0,5.0,26,0.00,,---,0.00,VWS V14.01,2013-02-10 21:11:00,
2013-02-10 16:13:00,51.3,17.6,30.25,SE,135,2.0,5.0,26,0.00,,---,0.00,VWS V14.01,2013-02-10 21:13:00,
2013-02-10 16:15:00,51.3,17.6,30.25,SSE,166,4.0,6.0,26,0.00,,---,0.00,VWS V14.01,2013-02-10 21:15:00,
2013-02-10 16:17:00,51.3,17.6,30.25,SSE,153,0.0,4.0,26,0.00,,---,0.00,VWS V14.01,2013-02-10 21:17:00,
2013-02-10 16:19:00,51.1,17.4,30.25,SE,128,0.0,4.0,26,0.00,,---,0.00,VWS V14.01,2013-02-10 21:19:00,
2013-02-10 16:21:00,51.1,17.4,30.25,SE,137,3.0,4.0,26,0.00,,---,0.00,VWS V14.01,2013-02-10 21:21:00,
2013-02-10 16:23:00,51.1,18.3,30.25,South,190,3.0,4.0,27,0.00,,---,0.00,VWS V14.01,2013-02-10 21:23:00,
2013-02-10 16:25:00,51.0,17.3,30.25,SSW,196,7.0,7.0,26,0.00,,---,0.00,VWS V14.01,2013-02-10 21:25:00,
2013-02-10 16:27:00,51.0,16.4,30.25,South,169,1.0,7.0,25,0.00,,---,0.00,VWS V14.01,2013-02-10 21:27:00,
2013-02-10 16:29:00,50.8,17.2,30.24,SSE,156,3.0,7.0,26,0.00,,---,0.00,VWS V14.01,2013-02-10 21:29:00,
2013-02-10 16:30:00,50.8,17.2,30.24,SSE,156,3.0,7.0,26,0.00,,---,0.00,VWS V14.01,2013-02-10 21:30:00,
2013-02-10 16:31:00,50.8,17.2,30.24,SSE,165,2.0,4.0,26,0.00,,---,0.00,VWS V14.01,2013-02-10 21:31:00,
2013-02-10 16:33:00,50.8,18.0,30.24,SE,142,1.0,4.0,27,0.00,,---,0.00,VWS V14.01,2013-02-10 21:33:00,
2013-02-10 16:35:00,50.7,17.1,30.24,SE,142,0.0,4.0,26,0.00,,---,0.00,VWS V14.01,2013-02-10 21:35:00,
2013-02-10 16:37:00,50.7,18.0,30.24,SE,142,0.0,4.0,27,0.00,,---,0.00,VWS V14.01,2013-02-10 21:37:00,
2013-02-10 16:39:00,50.5,16.9,30.24,South,170,0.0,4.0,26,0.00,,---,0.00,VWS V14.01,2013-02-10 21:39:00,
2013-02-10 16:41:00,50.5,16.9,30.24,SE,134,0.0,4.0,26,0.00,,---,0.00,VWS V14.01,2013-02-10 21:41:00,
2013-02-10 16:43:00,50.5,16.9,30.24,SE,139,0.0,4.0,26,0.00,,---,0.00,VWS V14.01,2013-02-10 21:43:00,
2013-02-10 16:45:00,50.5,16.9,30.24,SE,140,0.0,4.0,26,0.00,,---,0.00,VWS V14.01,2013-02-10 21:45:00,
2013-02-10 16:48:00,50.4,16.8,30.24,South,175,4.0,5.0,26,0.00,,---,0.00,VWS V14.01,2013-02-10 21:48:00,
2013-02-10 16:50:00,50.2,17.5,30.24,SE,138,3.0,6.0,27,0.00,,---,0.00,VWS V14.01,2013-02-10 21:50:00,
2013-02-10 16:52:00,50.2,17.5,30.24,SSE,147,4.0,6.0,27,0.00,,---,0.00,VWS V14.01,2013-02-10 21:52:00,
2013-02-10 16:54:00,50.1,17.4,30.24,SSE,153,0.0,6.0,27,0.00,,---,0.00,VWS V14.01,2013-02-10 21:54:00,
2013-02-10 16:56:00,50.1,17.4,30.24,SE,128,0.0,6.0,27,0.00,,---,0.00,VWS V14.01,2013-02-10 21:56:00,
2013-02-10 16:58:00,49.9,17.3,30.24,SSE,168,0.0,6.0,27,0.00,,---,0.00,VWS V14.01,2013-02-10 21:58:00,
2013-02-10 17:00:00,49.9,17.3,30.25,South,174,0.0,6.0,27,0.00,,---,0.00,VWS V14.01,2013-02-10 22:00:00,
2013-02-10 17:02:00,49.8,18.0,30.25,SE,139,1.0,4.0,28,0.00,,---,0.00,VWS V14.01,2013-02-10 22:02:00,
2013-02-10 17:04:00,49.8,18.0,30.25,South,177,0.0,4.0,28,0.00,,---,0.00,VWS V14.01,2013-02-10 22:04:00,
2013-02-10 17:06:00,49.8,18.0,30.25,South,172,1.0,4.0,28,0.00,,---,0.00,VWS V14.01,2013-02-10 22:06:00,
2013-02-10 17:08:00,49.6,17.9,30.25,SE,146,0.0,5.0,28,0.00,,---,0.00,VWS V14.01,2013-02-10 22:08:00,
2013-02-10 17:10:00,49.6,17.0,30.25,SSE,158,2.0,5.0,27,0.00,,---,0.00,VWS V14.01,2013-02-10 22:10:00,
2013-02-10 17:12:00,49.5,16.9,30.25,SE,139,2.0,5.0,27,0.00,,---,0.00,VWS V14.01,2013-02-10 22:12:00,
2013-02-10 17:14:00,49.5,16.9,30.24,SE,144,1.0,5.0,27,0.00,,---,0.00,VWS V14.01,2013-02-10 22:14:00,
2013-02-10 17:15:00,49.5,16.9,30.24,SE,141,1.0,5.0,27,0.00,,---,0.00,VWS V14.01,2013-02-10 22:15:00,
2013-02-10 17:16:00,49.4,16.8,30.24,SE,141,2.0,3.0,27,0.00,,---,0.00,VWS V14.01,2013-02-10 22:16:00,
2013-02-10 17:18:00,49.4,16.8,30.24,SSE,148,1.0,4.0,27,0.00,,---,0.00,VWS V14.01,2013-02-10 22:18:00,
2013-02-10 17:20:00,49.2,16.7,30.24,SE,144,0.0,4.0,27,0.00,,---,0.00,VWS V14.01,2013-02-10 22:20:00,
2013-02-10 17:22:00,49.2,17.5,30.24,SSE,155,0.0,4.0,28,0.00,,---,0.00,VWS V14.01,2013-02-10 22:22:00,
2013-02-10 17:24:00,49.1,18.2,30.24,ESE,118,0.0,4.0,29,0.00,,---,0.00,VWS V14.01,2013-02-10 22:24:00,
2013-02-10 17:26:00,49.1,17.4,30.24,ESE,107,0.0,4.0,28,0.00,,---,0.00,VWS V14.01,2013-02-10 22:26:00,
2013-02-10 17:28:00,48.9,18.1,30.24,ESE,115,0.0,4.0,29,0.00,,---,0.00,VWS V14.01,2013-02-10 22:28:00,
2013-02-10 17:30:00,48.9,18.9,30.22,East,84,0.0,4.0,30,0.00,,---,0.00,VWS V14.01,2013-02-10 22:30:00,
2013-02-10 17:32:00,48.8,18.8,30.22,East,92,0.0,0.0,30,0.00,,---,0.00,VWS V14.01,2013-02-10 22:32:00,
2013-02-10 17:34:00,48.8,18.8,30.22,East,92,0.0,1.0,30,0.00,,---,0.00,VWS V14.01,2013-02-10 22:34:00,
2013-02-10 17:36:00,48.6,17.8,30.22,ESE,123,0.0,1.0,29,0.00,,---,0.00,VWS V14.01,2013-02-10 22:36:00,
2013-02-10 17:38:00,48.6,17.8,30.22,SE,145,1.0,2.0,29,0.00,,---,0.00,VWS V14.01,2013-02-10 22:38:00,
2013-02-10 17:40:00,48.5,18.5,30.22,SE,145,0.0,2.0,30,0.00,,---,0.00,VWS V14.01,2013-02-10 22:40:00,
2013-02-10 17:42:00,48.5,18.5,30.22,SE,145,0.0,2.0,30,0.00,,---,0.00,VWS V14.01,2013-02-10 22:42:00,
2013-02-10 17:44:00,48.3,17.5,30.23,SE,145,0.0,2.0,29,0.00,,---,0.00,VWS V14.01,2013-02-10 22:44:00,
2013-02-10 17:45:00,48.3,17.5,30.23,SE,144,1.0,2.0,29,0.00,,---,0.00,VWS V14.01,2013-02-10 22:45:00,
2013-02-10 17:46:00,48.3,17.5,30.23,SE,144,0.0,1.0,29,0.00,,---,0.00,VWS V14.01,2013-02-10 22:46:00,
2013-02-10 17:48:00,48.2,17.5,30.23,SE,144,0.0,1.0,29,0.00,,---,0.00,VWS V14.01,2013-02-10 22:48:00,
2013-02-10 17:50:00,48.2,19.0,30.23,ESE,113,2.0,2.0,31,0.00,,---,0.00,VWS V14.01,2013-02-10 22:50:00,
2013-02-10 17:52:00,48.2,17.5,30.23,SSE,153,0.0,3.0,29,0.00,,---,0.00,VWS V14.01,2013-02-10 22:52:00,
2013-02-10 17:54:00,48.0,18.1,30.23,SSE,153,0.0,3.0,30,0.00,,---,0.00,VWS V14.01,2013-02-10 22:54:00,
2013-02-10 17:56:00,48.0,18.1,30.23,SSE,153,0.0,3.0,30,0.00,,---,0.00,VWS V14.01,2013-02-10 22:56:00,
2013-02-10 17:58:00,48.0,18.1,30.23,SE,145,0.0,3.0,30,0.00,,---,0.00,VWS V14.01,2013-02-10 22:58:00,
2013-02-10 18:00:00,47.9,18.7,30.23,SE,134,1.0,3.0,31,0.00,,---,0.00,VWS V14.01,2013-02-10 23:00:00,
2013-02-10 18:02:00,47.9,18.0,30.23,SE,134,0.0,1.0,30,0.00,,---,0.00,VWS V14.01,2013-02-10 23:02:00,
2013-02-10 18:04:00,47.9,18.0,30.23,SE,134,0.0,1.0,30,0.00,,---,0.00,VWS V14.01,2013-02-10 23:04:00,
2013-02-10 18:06:00,47.7,18.6,30.23,SE,134,0.0,1.0,31,0.00,,---,0.00,VWS V14.01,2013-02-10 23:06:00,
2013-02-10 18:08:00,47.7,18.6,30.23,South,174,0.0,2.0,31,0.00,,---,0.00,VWS V14.01,2013-02-10 23:08:00,
2013-02-10 18:10:00,47.6,17.7,30.23,SSE,168,0.0,2.0,30,0.00,,---,0.00,VWS V14.01,2013-02-10 23:10:00,
2013-02-10 18:12:00,47.6,18.5,30.23,SSE,168,0.0,2.0,31,0.00,,---,0.00,VWS V14.01,2013-02-10 23:12:00,
2013-02-10 18:14:00,47.4,18.3,30.24,SSE,165,0.0,2.0,31,0.00,,---,0.00,VWS V14.01,2013-02-10 23:14:00,
2013-02-10 18:15:00,47.4,18.3,30.24,SSE,158,0.0,2.0,31,0.00,,---,0.00,VWS V14.01,2013-02-10 23:15:00,
2013-02-10 18:16:00,47.4,18.3,30.24,SSE,158,0.0,0.0,31,0.00,,---,0.00,VWS V14.01,2013-02-10 23:16:00,
2013-02-10 18:18:00,47.3,19.0,30.24,SSE,158,0.0,0.0,32,0.00,,---,0.00,VWS V14.01,2013-02-10 23:18:00,
2013-02-10 18:20:00,47.3,18.2,30.24,SSE,148,0.0,5.0,31,0.00,,---,0.00,VWS V14.01,2013-02-10 23:20:00,
2013-02-10 18:22:00,47.1,18.8,30.24,SSE,148,0.0,5.0,32,0.00,,---,0.00,VWS V14.01,2013-02-10 23:22:00,
2013-02-10 18:24:00,47.1,18.8,30.24,SSE,148,0.0,5.0,32,0.00,,---,0.00,VWS V14.01,2013-02-10 23:24:00,
2013-02-10 18:26:00,47.0,18.7,30.24,SSE,148,0.0,5.0,32,0.00,,---,0.00,VWS V14.01,2013-02-10 23:26:00,
2013-02-10 18:28:00,47.0,18.7,30.24,SSE,155,0.0,5.0,32,0.00,,---,0.00,VWS V14.01,2013-02-10 23:28:00,
2013-02-10 18:30:00,47.0,19.4,30.25,SSE,155,0.0,5.0,33,0.00,,---,0.00,VWS V14.01,2013-02-10 23:30:00,
2013-02-10 18:32:00,47.0,19.4,30.25,SSE,155,0.0,0.0,33,0.00,,---,0.00,VWS V14.01,2013-02-10 23:32:00,
2013-02-10 18:34:00,47.0,19.4,30.25,SSE,155,0.0,0.0,33,0.00,,---,0.00,VWS V14.01,2013-02-10 23:34:00,
2013-02-10 18:36:00,47.0,19.4,30.25,SSE,155,0.0,0.0,33,0.00,,---,0.00,VWS V14.01,2013-02-10 23:36:00,
2013-02-10 18:38:00,46.8,19.2,30.25,SSE,155,0.0,0.0,33,0.00,,---,0.00,VWS V14.01,2013-02-10 23:38:00,
2013-02-10 18:40:00,46.8,19.2,30.25,SSE,155,0.0,0.0,33,0.00,,---,0.00,VWS V14.01,2013-02-10 23:40:00,
2013-02-10 18:42:00,46.8,19.2,30.25,SSE,155,0.0,0.0,33,0.00,,---,0.00,VWS V14.01,2013-02-10 23:42:00,
2013-02-10 18:44:00,46.8,19.2,30.25,SSE,155,0.0,0.0,33,0.00,,---,0.00,VWS V14.01,2013-02-10 23:44:00,
2013-02-10 18:45:00,46.8,19.2,30.25,SSE,154,0.0,0.0,33,0.00,,---,0.00,VWS V14.01,2013-02-10 23:45:00,
2013-02-10 18:46:00,46.8,19.2,30.25,SSE,155,0.0,0.0,33,0.00,,---,0.00,VWS V14.01,2013-02-10 23:46:00,
2013-02-10 18:48:00,46.7,19.8,30.25,SSE,155,0.0,0.0,34,0.00,,---,0.00,VWS V14.01,2013-02-10 23:48:00,
2013-02-10 18:50:00,46.7,19.1,30.25,SSE,155,0.0,0.0,33,0.00,,---,0.00,VWS V14.01,2013-02-10 23:50:00,
2013-02-10 18:52:00,46.7,19.8,30.25,SSE,155,0.0,0.0,34,0.00,,---,0.00,VWS V14.01,2013-02-10 23:52:00,
2013-02-10 18:54:00,46.7,19.8,30.25,SSE,155,0.0,0.0,34,0.00,,---,0.00,VWS V14.01,2013-02-10 23:54:00,
2013-02-10 18:56:00,46.5,19.0,30.25,SSE,155,0.0,0.0,33,0.00,,---,0.00,VWS V14.01,2013-02-10 23:56:00,
2013-02-10 18:58:00,46.5,19.7,30.25,SSE,155,0.0,0.0,34,0.00,,---,0.00,VWS V14.01,2013-02-10 23:58:00,
2013-02-10 19:00:00,46.5,20.3,30.25,SSE,155,0.0,0.0,35,0.00,,---,0.00,VWS V14.01,2013-02-11 00:00:00,
2013-02-10 19:02:00,46.4,20.2,30.25,SSE,155,0.0,0.0,35,0.00,,---,0.00,VWS V14.01,2013-02-11 00:02:00,
2013-02-10 19:04:00,46.4,20.2,30.25,SSE,155,0.0,0.0,35,0.00,,---,0.00,VWS V14.01,2013-02-11 00:04:00,
2013-02-10 19:06:00,46.4,20.9,30.25,SSE,155,0.0,0.0,36,0.00,,---,0.00,VWS V14.01,2013-02-11 00:06:00,
2013-02-10 19:08:00,46.4,20.2,30.25,SSE,155,0.0,0.0,35,0.00,,---,0.00,VWS V14.01,2013-02-11 00:08:00,
2013-02-10 19:10:00,46.2,20.1,30.25,SSE,155,0.0,0.0,35,0.00,,---,0.00,VWS V14.01,2013-02-11 00:10:00,
2013-02-10 19:12:00,46.2,20.7,30.25,SSE,155,0.0,0.0,36,0.00,,---,0.00,VWS V14.01,2013-02-11 00:12:00,
2013-02-10 19:14:00,46.2,20.7,30.24,SSE,155,0.0,0.0,36,0.00,,---,0.00,VWS V14.01,2013-02-11 00:14:00,
2013-02-10 19:15:00,46.2,20.7,30.24,SSE,155,0.0,0.0,36,0.00,,---,0.00,VWS V14.01,2013-02-11 00:15:00,
2013-02-10 19:16:00,46.2,20.7,30.24,SSE,155,0.0,0.0,36,0.00,,---,0.00,VWS V14.01,2013-02-11 00:16:00,
2013-02-10 19:18:00,46.1,20.0,30.24,SSE,155,0.0,0.0,35,0.00,,---,0.00,VWS V14.01,2013-02-11 00:18:00,
2013-02-10 19:20:00,46.1,20.6,30.24,SSE,155,0.0,0.0,36,0.00,,---,0.00,VWS V14.01,2013-02-11 00:20:00,
2013-02-10 19:22:00,46.1,20.6,30.24,SSE,155,0.0,0.0,36,0.00,,---,0.00,VWS V14.01,2013-02-11 00:22:00,
2013-02-10 19:24:00,46.1,21.3,30.24,SSE,155,0.0,1.0,37,0.00,,---,0.00,VWS V14.01,2013-02-11 00:24:00,
2013-02-10 19:26:00,46.1,20.6,30.24,SSE,155,0.0,1.0,36,0.00,,---,0.00,VWS V14.01,2013-02-11 00:26:00,
2013-02-10 19:28:00,46.0,20.6,30.24,SSE,155,0.0,1.0,36,0.00,,---,0.00,VWS V14.01,2013-02-11 00:28:00,
2013-02-10 19:30:00,46.0,20.6,30.24,SSE,155,0.0,1.0,36,0.00,,---,0.00,VWS V14.01,2013-02-11 00:30:00,
2013-02-10 19:32:00,46.0,20.6,30.24,SSE,155,0.0,0.0,36,0.00,,---,0.00,VWS V14.01,2013-02-11 00:32:00,
2013-02-10 19:34:00,46.0,20.6,30.24,SSE,155,0.0,0.0,36,0.00,,---,0.00,VWS V14.01,2013-02-11 00:34:00,
2013-02-10 19:36:00,46.0,20.6,30.24,SSE,155,0.0,0.0,36,0.00,,---,0.00,VWS V14.01,2013-02-11 00:36:00,
2013-02-10 19:38:00,45.8,20.4,30.24,SSE,155,0.0,0.0,36,0.00,,---,0.00,VWS V14.01,2013-02-11 00:38:00,
2013-02-10 19:40:00,45.8,21.0,30.24,SSE,155,0.0,0.0,37,0.00,,---,0.00,VWS V14.01,2013-02-11 00:40:00,
2013-02-10 19:42:00,45.8,20.4,30.24,SSE,155,0.0,0.0,36,0.00,,---,0.00,VWS V14.01,2013-02-11 00:42:00,
2013-02-10 19:44:00,45.8,20.4,30.24,SSE,155,0.0,0.0,36,0.00,,---,0.00,VWS V14.01,2013-02-11 00:44:00,
2013-02-10 19:45:00,45.8,20.4,30.24,SSE,155,0.0,0.0,36,0.00,,---,0.00,VWS V14.01,2013-02-11 00:45:00,
2013-02-10 19:46:00,45.8,21.0,30.24,SSE,154,0.0,0.0,37,0.00,,---,0.00,VWS V14.01,2013-02-11 00:46:00,
2013-02-10 19:50:00,45.7,20.9,30.24,SSE,155,0.0,0.0,37,0.00,,---,0.00,VWS V14.01,2013-02-11 00:50:00,
2013-02-10 19:56:00,45.5,20.1,30.24,SSE,155,0.0,0.0,36,0.00,,---,0.00,VWS V14.01,2013-02-11 00:56:00,
2013-02-10 19:58:00,45.5,20.1,30.24,SSE,155,0.0,0.0,36,0.00,,---,0.00,VWS V14.01,2013-02-11 00:58:00,
2013-02-10 20:00:00,45.7,20.9,30.24,SSE,155,0.0,0.0,37,0.00,,---,0.00,VWS V14.01,2013-02-11 01:00:00,
2013-02-10 20:02:00,45.5,20.1,30.25,SSE,155,0.0,0.0,36,0.00,,---,0.00,VWS V14.01,2013-02-11 01:02:00,
2013-02-10 20:04:00,45.5,20.1,30.25,SSE,155,0.0,0.0,36,0.00,,---,0.00,VWS V14.01,2013-02-11 01:04:00,
2013-02-10 20:06:00,45.5,20.1,30.24,SSE,155,0.0,0.0,36,0.00,,---,0.00,VWS V14.01,2013-02-11 01:06:00,
2013-02-10 20:08:00,45.5,21.4,30.25,SSE,155,0.0,0.0,38,0.00,,---,0.00,VWS V14.01,2013-02-11 01:08:00,
2013-02-10 20:12:00,45.5,20.1,30.25,SSE,155,0.0,0.0,36,0.00,,---,0.00,VWS V14.01,2013-02-11 01:12:00,
2013-02-10 20:15:00,45.4,21.9,30.25,SSE,155,0.0,0.0,39,0.00,,---,0.00,VWS V14.01,2013-02-11 01:15:00,
2013-02-10 20:16:00,45.4,21.3,30.25,SSE,155,0.0,0.0,38,0.00,,---,0.00,VWS V14.01,2013-02-11 01:16:00,
2013-02-10 20:18:00,45.4,21.3,30.25,SSE,155,0.0,0.0,38,0.00,,---,0.00,VWS V14.01,2013-02-11 01:18:00,
2013-02-10 20:20:00,45.4,21.3,30.25,SSE,155,0.0,0.0,38,0.00,,---,0.00,VWS V14.01,2013-02-11 01:20:00,
2013-02-10 20:22:00,45.5,22.0,30.25,SSE,154,0.0,0.0,39,0.00,,---,0.00,VWS V14.01,2013-02-11 01:22:00,
2013-02-10 20:24:00,45.4,20.7,30.25,SSE,155,0.0,0.0,37,0.00,,---,0.00,VWS V14.01,2013-02-11 01:24:00,
2013-02-10 20:26:00,45.4,20.7,30.25,SSE,155,0.0,0.0,37,0.00,,---,0.00,VWS V14.01,2013-02-11 01:26:00,
2013-02-10 20:28:00,45.4,21.9,30.25,SSE,155,0.0,0.0,39,0.00,,---,0.00,VWS V14.01,2013-02-11 01:28:00,
2013-02-10 20:30:00,45.4,22.5,30.25,SSE,155,0.0,0.0,40,0.00,,---,0.00,VWS V14.01,2013-02-11 01:30:00,
2013-02-10 20:32:00,45.4,24.8,30.25,SSE,155,0.0,0.0,44,0.00,,---,0.00,VWS V14.01,2013-02-11 01:32:00,
2013-02-10 20:34:00,45.5,25.9,30.25,SSE,155,0.0,0.0,46,0.00,,---,0.00,VWS V14.01,2013-02-11 01:34:00,
2013-02-10 20:36:00,45.5,25.9,30.25,SSE,155,0.0,0.0,46,0.00,,---,0.00,VWS V14.01,2013-02-11 01:36:00,
2013-02-10 20:38:00,45.4,25.3,30.25,SSE,155,0.0,0.0,45,0.00,,---,0.00,VWS V14.01,2013-02-11 01:38:00,
2013-02-10 20:40:00,45.4,25.3,30.25,SSE,155,0.0,0.0,45,0.00,,---,0.00,VWS V14.01,2013-02-11 01:40:00,
2013-02-10 20:42:00,45.4,25.3,30.25,SSE,155,0.0,0.0,45,0.00,,---,0.00,VWS V14.01,2013-02-11 01:42:00,
2013-02-10 20:45:00,45.4,26.4,30.24,SSE,155,0.0,0.0,47,0.00,,---,0.00,VWS V14.01,2013-02-11 01:45:00,
2013-02-10 20:46:00,45.2,26.7,30.24,SSE,155,0.0,0.0,48,0.00,,---,0.00,VWS V14.01,2013-02-11 01:46:00,
2013-02-10 20:48:00,45.2,27.7,30.24,SSE,155,0.0,0.0,50,0.00,,---,0.00,VWS V14.01,2013-02-11 01:48:00,
2013-02-10 20:51:00,45.1,29.0,30.24,SSE,154,0.0,0.0,53,0.00,,---,0.00,VWS V14.01,2013-02-11 01:51:00,
2013-02-10 20:53:00,44.9,29.3,30.24,SSE,155,0.0,0.0,54,0.00,,---,0.00,VWS V14.01,2013-02-11 01:53:00,
2013-02-10 20:55:00,44.8,29.2,30.24,SSE,154,0.0,0.0,54,0.00,,---,0.00,VWS V14.01,2013-02-11 01:55:00,
2013-02-10 20:56:00,45.4,26.4,30.24,SSE,154,0.0,0.0,47,0.00,,---,0.00,VWS V14.01,2013-02-11 01:56:00,
2013-02-10 20:57:00,44.8,30.5,30.24,SSE,154,0.0,0.0,57,0.01,,---,0.01,VWS V14.01,2013-02-11 01:57:00,
2013-02-10 20:59:00,44.6,31.2,30.24,SSE,155,0.0,0.0,59,0.01,,---,0.01,VWS V14.01,2013-02-11 01:59:00,
2013-02-10 21:00:00,44.5,31.1,30.23,SSE,155,0.0,0.0,59,0.01,,---,0.01,VWS V14.01,2013-02-11 02:00:00,
2013-02-10 21:01:00,44.5,31.5,30.23,SSE,155,0.0,0.0,60,0.01,,---,0.01,VWS V14.01,2013-02-11 02:01:00,
2013-02-10 21:03:00,44.3,31.7,30.23,SSE,155,0.0,0.0,61,0.01,,---,0.01,VWS V14.01,2013-02-11 02:03:00,
2013-02-10 21:05:00,44.2,31.2,30.23,SSE,155,0.0,0.0,60,0.01,,---,0.01,VWS V14.01,2013-02-11 02:05:00,
2013-02-10 21:07:00,44.1,31.9,30.23,SSE,155,0.0,0.0,62,0.01,,---,0.01,VWS V14.01,2013-02-11 02:07:00,
2013-02-10 21:09:00,43.8,32.0,30.23,SSE,155,0.0,0.0,63,0.01,,---,0.01,VWS V14.01,2013-02-11 02:09:00,
2013-02-10 21:11:00,43.6,33.0,30.23,SSE,155,0.0,0.0,66,0.02,,---,0.02,VWS V14.01,2013-02-11 02:11:00,
2013-02-10 21:13:00,43.3,32.0,30.23,SSE,155,0.0,0.0,64,0.02,,---,0.02,VWS V14.01,2013-02-11 02:13:00,
2013-02-10 21:15:00,43.2,33.0,30.24,SSE,155,0.0,0.0,67,0.02,,---,0.02,VWS V14.01,2013-02-11 02:15:00,
2013-02-10 21:17:00,42.9,33.1,30.24,SSE,155,0.0,0.0,68,0.03,,---,0.03,VWS V14.01,2013-02-11 02:17:00,
2013-02-10 21:19:00,42.8,33.3,30.24,SSE,155,0.0,0.0,69,0.03,,---,0.03,VWS V14.01,2013-02-11 02:19:00,
2013-02-10 21:21:00,42.6,33.9,30.24,SSE,155,0.0,0.0,71,0.03,,---,0.03,VWS V14.01,2013-02-11 02:21:00,
2013-02-10 21:23:00,42.5,33.8,30.24,SSE,155,0.0,0.0,71,0.03,,---,0.03,VWS V14.01,2013-02-11 02:23:00,
2013-02-10 21:25:00,42.3,33.9,30.24,SSE,155,0.0,0.0,72,0.04,,---,0.04,VWS V14.01,2013-02-11 02:25:00,
2013-02-10 21:27:00,42.2,34.2,30.24,SSE,155,0.0,0.0,73,0.04,,---,0.04,VWS V14.01,2013-02-11 02:27:00,
2013-02-10 21:29:00,42.1,34.4,30.23,SSE,155,0.0,0.0,74,0.04,,---,0.04,VWS V14.01,2013-02-11 02:29:00,
2013-02-10 21:30:00,41.9,34.2,30.23,SSE,155,0.0,0.0,74,0.04,,---,0.04,VWS V14.01,2013-02-11 02:30:00,
2013-02-10 21:31:00,41.9,34.2,30.23,SSE,155,0.0,0.0,74,0.04,,---,0.04,VWS V14.01,2013-02-11 02:31:00,
2013-02-10 21:33:00,41.8,34.5,30.23,SSE,155,0.0,0.0,75,0.05,,---,0.05,VWS V14.01,2013-02-11 02:33:00,
2013-02-10 21:35:00,41.5,34.2,30.23,SSE,154,0.0,0.0,75,0.05,,---,0.05,VWS V14.01,2013-02-11 02:35:00,
2013-02-10 21:37:00,41.5,34.2,30.23,SSE,155,0.0,0.0,75,0.05,,---,0.05,VWS V14.01,2013-02-11 02:37:00,
2013-02-10 21:39:00,41.3,34.3,30.23,SSE,155,0.0,0.0,76,0.05,,---,0.05,VWS V14.01,2013-02-11 02:39:00,
2013-02-10 21:41:00,41.2,34.5,30.23,SSE,155,0.0,0.0,77,0.05,,---,0.05,VWS V14.01,2013-02-11 02:41:00,
2013-02-10 21:43:00,41.1,34.8,30.23,SSE,155,0.0,0.0,78,0.05,,---,0.05,VWS V14.01,2013-02-11 02:43:00,
2013-02-10 21:45:00,41.1,34.8,30.22,SSE,155,0.0,0.0,78,0.05,,---,0.05,VWS V14.01,2013-02-11 02:45:00,
2013-02-10 21:47:00,40.9,34.9,30.22,SSE,154,0.0,0.0,79,0.05,,---,0.05,VWS V14.01,2013-02-11 02:47:00,
2013-02-10 21:49:00,40.9,34.9,30.22,SSE,154,0.0,1.0,79,0.05,,---,0.05,VWS V14.01,2013-02-11 02:49:00,
2013-02-10 21:51:00,40.8,35.4,30.22,SSE,154,0.0,1.0,81,0.05,,---,0.05,VWS V14.01,2013-02-11 02:51:00,
2013-02-10 21:53:00,40.8,35.7,30.22,SSE,155,1.0,1.0,82,0.05,,---,0.05,VWS V14.01,2013-02-11 02:53:00,
2013-02-10 21:55:00,40.8,35.7,30.22,SSE,155,0.0,1.0,82,0.06,,---,0.06,VWS V14.01,2013-02-11 02:55:00,
2013-02-10 21:57:00,40.6,36.2,30.22,SSE,154,0.0,1.0,84,0.06,,---,0.06,VWS V14.01,2013-02-11 02:57:00,
2013-02-10 21:59:00,40.6,36.2,30.20,SSE,155,0.0,1.0,84,0.06,,---,0.06,VWS V14.01,2013-02-11 02:59:00,
2013-02-10 22:00:00,40.6,36.2,30.20,SSE,154,0.0,1.0,84,0.06,,---,0.06,VWS V14.01,2013-02-11 03:00:00,
2013-02-10 22:01:00,40.5,36.3,30.20,SSE,155,0.0,0.0,85,0.05,,---,0.06,VWS V14.01,2013-02-11 03:01:00,
2013-02-10 22:03:00,40.5,36.3,30.20,SSE,155,0.0,0.0,85,0.05,,---,0.06,VWS V14.01,2013-02-11 03:03:00,
2013-02-10 22:05:00,40.5,36.3,30.20,SSE,155,0.0,0.0,85,0.05,,---,0.06,VWS V14.01,2013-02-11 03:05:00,
2013-02-10 22:07:00,40.5,36.7,30.20,SSE,155,0.0,0.0,86,0.05,,---,0.06,VWS V14.01,2013-02-11 03:07:00,
2013-02-10 22:09:00,40.5,36.7,30.20,SSE,155,0.0,1.0,86,0.05,,---,0.06,VWS V14.01,2013-02-11 03:09:00,
2013-02-10 22:11:00,40.3,36.5,30.20,SSE,154,0.0,1.0,86,0.05,,---,0.06,VWS V14.01,2013-02-11 03:11:00,
2013-02-10 22:13:00,40.3,36.5,30.20,SSE,155,1.0,1.0,86,0.05,,---,0.06,VWS V14.01,2013-02-11 03:13:00,
2013-02-10 22:15:00,40.2,36.3,30.17,South,180,0.0,1.0,86,0.05,,---,0.06,VWS V14.01,2013-02-11 03:15:00,
2013-02-10 22:17:00,40.2,36.3,30.17,South,180,0.0,0.0,86,0.04,,---,0.06,VWS V14.01,2013-02-11 03:17:00,
2013-02-10 22:19:00,40.2,36.3,30.17,South,180,0.0,0.0,86,0.04,,---,0.06,VWS V14.01,2013-02-11 03:19:00,
2013-02-10 22:21:00,40.2,36.3,30.17,South,180,0.0,0.0,86,0.04,,---,0.06,VWS V14.01,2013-02-11 03:21:00,
2013-02-10 22:23:00,40.1,36.3,30.17,South,180,0.0,0.0,86,0.04,,---,0.06,VWS V14.01,2013-02-11 03:23:00,
2013-02-10 22:25:00,40.1,36.3,30.17,South,180,0.0,0.0,86,0.04,,---,0.06,VWS V14.01,2013-02-11 03:25:00,
2013-02-10 22:27:00,40.1,36.5,30.17,South,181,0.0,0.0,87,0.04,,---,0.06,VWS V14.01,2013-02-11 03:27:00,
2013-02-10 22:29:00,40.1,36.8,30.18,South,181,0.0,1.0,88,0.04,,---,0.06,VWS V14.01,2013-02-11 03:29:00,
2013-02-10 22:30:00,40.1,36.8,30.18,South,181,0.0,1.0,88,0.04,,---,0.06,VWS V14.01,2013-02-11 03:30:00,
2013-02-10 22:31:00,40.1,37.1,30.18,South,181,0.0,0.0,89,0.02,,---,0.06,VWS V14.01,2013-02-11 03:31:00,
2013-02-10 22:33:00,40.1,37.1,30.18,South,181,0.0,0.0,89,0.02,,---,0.06,VWS V14.01,2013-02-11 03:33:00,
2013-02-10 22:35:00,39.9,36.9,30.18,South,181,0.0,0.0,89,0.02,,---,0.06,VWS V14.01,2013-02-11 03:35:00,
2013-02-10 22:39:00,39.8,37.1,30.18,South,181,0.0,0.0,90,0.02,,---,0.06,VWS V14.01,2013-02-11 03:39:00,
2013-02-10 22:41:00,39.8,37.1,30.18,South,181,0.0,1.0,90,0.02,,---,0.06,VWS V14.01,2013-02-11 03:41:00,
2013-02-10 22:43:00,39.6,36.9,30.18,South,181,0.0,1.0,90,0.02,,---,0.06,VWS V14.01,2013-02-11 03:43:00,
2013-02-10 22:45:00,39.6,36.9,30.17,South,181,0.0,1.0,90,0.02,,---,0.06,VWS V14.01,2013-02-11 03:45:00,
2013-02-10 22:47:00,39.6,36.9,30.17,South,181,0.0,1.0,90,0.01,,---,0.06,VWS V14.01,2013-02-11 03:47:00,
2013-02-10 22:49:00,39.9,37.2,30.18,South,181,0.0,0.0,90,0.02,,---,0.06,VWS V14.01,2013-02-11 03:49:00,
2013-02-10 22:53:00,39.5,37.1,30.17,South,181,0.0,1.0,91,0.01,,---,0.06,VWS V14.01,2013-02-11 03:53:00,
2013-02-10 22:55:00,39.5,37.1,30.17,South,181,0.0,1.0,91,0.01,,---,0.06,VWS V14.01,2013-02-11 03:55:00,
2013-02-10 22:57:00,39.5,37.1,30.17,South,181,0.0,1.0,91,0.01,,---,0.06,VWS V14.01,2013-02-11 03:57:00,
2013-02-10 22:59:00,39.5,37.1,30.16,South,181,0.0,1.0,91,0.01,,---,0.06,VWS V14.01,2013-02-11 03:59:00,
2013-02-10 23:00:00,39.5,37.1,30.16,South,181,0.0,1.0,91,0.01,,---,0.06,VWS V14.01,2013-02-11 04:00:00,
2013-02-10 23:01:00,39.5,37.1,30.17,South,181,0.0,1.0,91,0.01,,---,0.06,VWS V14.01,2013-02-11 04:01:00,
2013-02-10 23:03:00,39.5,37.1,30.16,South,181,0.0,0.0,91,0.00,,---,0.06,VWS V14.01,2013-02-11 04:03:00,
2013-02-10 23:05:00,39.5,37.1,30.16,South,181,0.0,0.0,91,0.00,,---,0.06,VWS V14.01,2013-02-11 04:05:00,
2013-02-10 23:07:00,39.5,37.1,30.16,South,181,0.0,0.0,91,0.00,,---,0.06,VWS V14.01,2013-02-11 04:07:00,
2013-02-10 23:09:00,39.5,37.1,30.16,South,181,0.0,0.0,91,0.00,,---,0.06,VWS V14.01,2013-02-11 04:09:00,
2013-02-10 23:13:00,39.5,36.8,30.16,South,181,0.0,0.0,90,0.00,,---,0.06,VWS V14.01,2013-02-11 04:13:00,
2013-02-10 23:15:00,39.5,36.8,30.15,South,181,0.0,0.0,90,0.00,,---,0.06,VWS V14.01,2013-02-11 04:15:00,
2013-02-10 23:17:00,39.5,36.8,30.15,South,181,0.0,0.0,90,0.00,,---,0.06,VWS V14.01,2013-02-11 04:17:00,
2013-02-10 23:19:00,39.5,36.8,30.15,South,181,0.0,0.0,90,0.00,,---,0.06,VWS V14.01,2013-02-11 04:19:00,
2013-02-10 23:21:00,39.5,36.8,30.15,South,182,0.0,1.0,90,0.00,,---,0.06,VWS V14.01,2013-02-11 04:21:00,
2013-02-10 23:23:00,39.5,37.1,30.16,South,181,0.0,0.0,91,0.00,,---,0.06,VWS V14.01,2013-02-11 04:23:00,
2013-02-10 23:27:00,39.5,37.1,30.15,South,182,0.0,1.0,91,0.00,,---,0.06,VWS V14.01,2013-02-11 04:27:00,
2013-02-10 23:30:00,39.5,36.8,30.15,South,182,0.0,1.0,90,0.00,,---,0.06,VWS V14.01,2013-02-11 04:30:00,
2013-02-10 23:33:00,39.5,36.8,30.15,South,182,0.0,0.0,90,0.00,,---,0.06,VWS V14.01,2013-02-11 04:33:00,
2013-02-10 23:35:00,39.5,36.8,30.15,South,182,0.0,0.0,90,0.00,,---,0.06,VWS V14.01,2013-02-11 04:35:00,
2013-02-10 23:37:00,39.5,37.1,30.15,South,182,0.0,1.0,91,0.00,,---,0.06,VWS V14.01,2013-02-11 04:37:00,
2013-02-10 23:39:00,39.5,36.8,30.15,South,182,0.0,0.0,90,0.00,,---,0.06,VWS V14.01,2013-02-11 04:39:00,
2013-02-10 23:41:00,39.5,36.8,30.15,South,182,0.0,0.0,90,0.00,,---,0.06,VWS V14.01,2013-02-11 04:41:00,
2013-02-10 23:43:00,39.5,36.8,30.15,South,182,0.0,0.0,90,0.00,,---,0.06,VWS V14.01,2013-02-11 04:43:00,
2013-02-10 23:45:00,39.5,36.8,30.15,South,182,0.0,0.0,90,0.00,,---,0.06,VWS V14.01,2013-02-11 04:45:00,
2013-02-10 23:49:00,39.6,36.6,30.15,South,182,0.0,1.0,89,0.00,,---,0.06,VWS V14.01,2013-02-11 04:49:00,
2013-02-10 23:51:00,39.6,36.6,30.15,South,182,0.0,1.0,89,0.00,,---,0.06,VWS V14.01,2013-02-11 04:51:00,
2013-02-10 23:53:00,39.5,36.5,30.15,South,182,0.0,1.0,89,0.00,,---,0.06,VWS V14.01,2013-02-11 04:53:00,
2013-02-10 23:55:00,39.5,36.5,30.15,South,182,0.0,1.0,89,0.00,,---,0.06,VWS V14.01,2013-02-11 04:55:00,
2013-02-10 23:57:00,39.5,36.5,30.15,South,182,0.0,1.0,89,0.00,,---,0.06,VWS V14.01,2013-02-11 04:57:00,
2013-02-10 23:59:00,39.5,36.8,30.15,South,182,0.0,1.0,90,0.00,,---,0.06,VWS V14.01,2013-02-11 04:59:00,